| time (UTC) | temp C | wind direction | speed KPH | gust KPH | rain 1hr cm | rain 24hr cm | rain mn cm | humidity % | barometer mb |
| 20260906141426 | 23 | 296 | 4.8 | 8.0 | 0.00 | 0.00 | 0.00 | 82 | 1010.9 |
| 20260906141328 | 23 | 306 | 3.2 | 8.0 | 0.00 | 0.00 | 0.00 | 82 | 1010.9 |
| 20260906141226 | 23 | 304 | 4.8 | 8.0 | 0.00 | 0.00 | 0.00 | 82 | 1011.0 |
| 20260906141124 | 23 | 305 | 3.2 | 8.0 | 0.00 | 0.00 | 0.00 | 82 | 1011.0 |
| 20260906141043 | 23 | 306 | 1.6 | 8.0 | 0.00 | 0.00 | 0.00 | 82 | 1011.0 |
| 20260906141001 | 23 | 306 | 3.2 | 8.0 | 0.00 | 0.00 | 0.00 | 82 | 1011.0 |
| 20260906140838 | 23 | 296 | 3.2 | 8.0 | 0.00 | 0.00 | 0.00 | 82 | 1011.0 |
| 20260906140757 | 23 | 274 | 1.6 | 4.8 | 0.00 | 0.00 | 0.00 | 82 | 1011.0 |
| 20260906140633 | 23 | 275 | 1.6 | 4.8 | 0.00 | 0.00 | 0.00 | 82 | 1011.0 |
| 20260906140536 | 23 | 271 | 3.2 | 4.8 | 0.00 | 0.00 | 0.00 | 82 | 1011.0 |
| 20260906140436 | 23 | 271 | 1.6 | 4.8 | 0.00 | 0.00 | 0.00 | 83 | 1011.0 |
| 20260906140334 | 23 | 271 | 3.2 | 4.8 | 0.00 | 0.00 | 0.00 | 83 | 1011.0 |
| 20260906140243 | 23 | 271 | 1.6 | 4.8 | 0.00 | 0.00 | 0.00 | 83 | 1011.0 |
| 20260906140151 | 23 | 268 | 1.6 | 4.8 | 0.00 | 0.00 | 0.00 | 84 | 1011.0 |
| 20260906140048 | 23 | 265 | 1.6 | 4.8 | 0.00 | 0.00 | 0.00 | 84 | 1011.0 |
| 20260906135945 | 23 | 265 | 1.6 | 4.8 | 0.00 | 0.00 | 0.00 | 84 | 1011.0 |
| 20260906135824 | 22 | 265 | 1.6 | 4.8 | 0.00 | 0.00 | 0.00 | 85 | 1011.0 |
| 20260906135742 | 22 | 263 | 1.6 | 4.8 | 0.00 | 0.00 | 0.00 | 85 | 1011.2 |
| 20260906135625 | 22 | 260 | 1.6 | 3.2 | 0.00 | 0.00 | 0.00 | 85 | 1011.2 |
| 20260906135543 | 22 | 258 | 0.0 | 3.2 | 0.00 | 0.00 | 0.00 | 86 | 1011.2 |
| 20260906135502 | 22 | 260 | 0.0 | 4.8 | 0.00 | 0.00 | 0.00 | 86 | 1011.2 |
| 20260906135339 | 22 | 260 | 0.0 | 4.8 | 0.00 | 0.00 | 0.00 | 86 | 1011.2 |
| 20260906135237 | 22 | 260 | 0.0 | 4.8 | 0.00 | 0.00 | 0.00 | 86 | 1011.2 |
| 20260906135155 | 22 | 258 | 1.6 | 4.8 | 0.00 | 0.00 | 0.00 | 86 | 1011.2 |
| 20260906135033 | 22 | 260 | 0.0 | 4.8 | 0.00 | 0.00 | 0.00 | 86 | 1011.2 |
| 20260906134951 | 22 | 258 | 0.0 | 11.3 | 0.00 | 0.00 | 0.00 | 86 | 1011.2 |
| 20260906134832 | 22 | 260 | 0.0 | 11.3 | 0.00 | 0.00 | 0.00 | 86 | 1011.2 |
| 20260906134731 | 22 | 260 | 1.6 | 11.3 | 0.00 | 0.00 | 0.00 | 87 | 1011.2 |
| 20260906134701 | 22 | 257 | 3.2 | 11.3 | 0.00 | 0.00 | 0.00 | 87 | 1011.2 |
| 20260906134539 | 22 | 258 | 1.6 | 11.3 | 0.00 | 0.00 | 0.00 | 87 | 1011.2 |
| 20260906134436 | 22 | 256 | 1.6 | 11.3 | 0.00 | 0.00 | 0.00 | 86 | 1011.2 |
| 20260906134335 | 22 | 257 | 3.2 | 11.3 | 0.00 | 0.00 | 0.00 | 86 | 1011.2 |
| 20260906134233 | 22 | 257 | 0.0 | 11.3 | 0.00 | 0.00 | 0.00 | 86 | 1011.4 |
| 20260906134135 | 22 | 257 | 3.2 | 11.3 | 0.00 | 0.00 | 0.00 | 86 | 1011.4 |
| 20260906134034 | 22 | 258 | 4.8 | 11.3 | 0.00 | 0.00 | 0.00 | 86 | 1011.4 |
| 20260906133934 | 22 | 267 | 0.0 | 9.7 | 0.00 | 0.00 | 0.00 | 86 | 1011.4 |
| 20260906133832 | 22 | 265 | 1.6 | 9.7 | 0.00 | 0.00 | 0.00 | 86 | 1011.4 |
| 20260906133732 | 22 | 265 | 3.2 | 9.7 | 0.00 | 0.00 | 0.00 | 86 | 1011.4 |
| 20260906133630 | 22 | 267 | 1.6 | 9.7 | 0.00 | 0.00 | 0.00 | 86 | 1011.4 |
| 20260906133529 | 22 | 267 | 3.2 | 9.7 | 0.00 | 0.00 | 0.00 | 86 | 1011.4 |
| 20260906133432 | 22 | 267 | 3.2 | 9.7 | 0.00 | 0.00 | 0.00 | 86 | 1011.4 |
| 20260906133330 | 22 | 265 | 4.8 | 9.7 | 0.00 | 0.00 | 0.00 | 86 | 1011.4 |
| 20260906133240 | 22 | 267 | 3.2 | 9.7 | 0.00 | 0.00 | 0.00 | 86 | 1011.4 |
| 20260906133150 | 22 | 267 | 6.4 | 9.7 | 0.00 | 0.00 | 0.00 | 86 | 1011.4 |
| 20260906133047 | 22 | 258 | 4.8 | 9.7 | 0.00 | 0.00 | 0.00 | 86 | 1011.4 |
| 20260906132925 | 22 | 260 | 4.8 | 9.7 | 0.00 | 0.00 | 0.00 | 86 | 1011.4 |
| 20260906132824 | 22 | 274 | 0.0 | 9.7 | 0.00 | 0.00 | 0.00 | 86 | 1011.4 |
| 20260906132725 | 22 | 270 | 3.2 | 9.7 | 0.00 | 0.00 | 0.00 | 85 | 1011.5 |
| 20260906132643 | 22 | 274 | 3.2 | 9.7 | 0.00 | 0.00 | 0.00 | 86 | 1011.5 |
| 20260906132542 | 22 | 271 | 4.8 | 9.7 | 0.00 | 0.00 | 0.00 | 86 | 1011.5 |
| 20260906132441 | 22 | 271 | 4.8 | 9.7 | 0.00 | 0.00 | 0.00 | 86 | 1011.5 |
| 20260906132358 | 21 | 272 | 6.4 | 9.7 | 0.00 | 0.00 | 0.00 | 86 | 1011.5 |
| 20260906132235 | 21 | 270 | 4.8 | 9.7 | 0.00 | 0.00 | 0.00 | 86 | 1011.5 |
| 20260906132139 | 21 | 270 | 3.2 | 9.7 | 0.00 | 0.00 | 0.00 | 86 | 1011.5 |
| 20260906132037 | 21 | 265 | 1.6 | 9.7 | 0.00 | 0.00 | 0.00 | 86 | 1011.5 |
| 20260906131939 | 21 | 263 | 1.6 | 9.7 | 0.00 | 0.00 | 0.00 | 86 | 1011.5 |
| 20260906131858 | 21 | 261 | 3.2 | 9.7 | 0.00 | 0.00 | 0.00 | 86 | 1011.5 |
| 20260906131754 | 21 | 261 | 1.6 | 9.7 | 0.00 | 0.00 | 0.00 | 86 | 1011.5 |
| 20260906131723 | 21 | 264 | 4.8 | 9.7 | 0.00 | 0.00 | 0.00 | 86 | 1011.5 |
| 20260906131600 | 21 | 263 | 3.2 | 9.7 | 0.00 | 0.00 | 0.00 | 86 | 1011.5 |
| 20260906131438 | 21 | 263 | 1.6 | 9.7 | 0.00 | 0.00 | 0.00 | 85 | 1011.5 |
| 20260906131359 | 21 | 260 | 1.6 | 9.7 | 0.00 | 0.00 | 0.00 | 85 | 1011.5 |
| 20260906131237 | 21 | 261 | 4.8 | 9.7 | 0.00 | 0.00 | 0.00 | 85 | 1011.6 |
| 20260906131135 | 21 | 258 | 6.4 | 9.7 | 0.00 | 0.00 | 0.00 | 85 | 1011.6 |
| 20260906131039 | 21 | 267 | 6.4 | 9.7 | 0.00 | 0.00 | 0.00 | 85 | 1011.6 |
| 20260906130939 | 21 | 261 | 6.4 | 9.7 | 0.00 | 0.00 | 0.00 | 85 | 1011.6 |
| 20260906130838 | 21 | 258 | 6.4 | 9.7 | 0.00 | 0.00 | 0.00 | 85 | 1011.6 |
| 20260906130735 | 21 | 271 | 4.8 | 9.7 | 0.00 | 0.00 | 0.00 | 86 | 1011.6 |
| 20260906130633 | 21 | 271 | 4.8 | 9.7 | 0.00 | 0.00 | 0.00 | 86 | 1011.6 |
| 20260906130532 | 21 | 270 | 6.4 | 9.7 | 0.00 | 0.00 | 0.00 | 86 | 1011.6 |
| 20260906130451 | 21 | 268 | 4.8 | 9.7 | 0.00 | 0.00 | 0.00 | 86 | 1011.6 |
| 20260906130332 | 21 | 265 | 1.6 | 9.7 | 0.00 | 0.00 | 0.00 | 86 | 1011.6 |
| 20260906130250 | 21 | 265 | 1.6 | 9.7 | 0.00 | 0.00 | 0.00 | 86 | 1011.6 |
| 20260906130221 | 21 | 265 | 3.2 | 9.7 | 0.00 | 0.00 | 0.00 | 86 | 1011.6 |
| 20260906130036 | 21 | 260 | 4.8 | 11.3 | 0.00 | 0.00 | 0.00 | 86 | 1011.6 |
| 20260906125934 | 21 | 264 | 4.8 | 11.3 | 0.00 | 0.00 | 0.00 | 86 | 1011.6 |
| 20260906125832 | 21 | 278 | 1.6 | 11.3 | 0.00 | 0.00 | 0.00 | 86 | 1011.6 |
| 20260906125730 | 21 | 278 | 3.2 | 11.3 | 0.00 | 0.00 | 0.00 | 87 | 1011.4 |
| 20260906125633 | 21 | 277 | 3.2 | 11.3 | 0.00 | 0.00 | 0.00 | 87 | 1011.4 |
| 20260906125551 | 21 | 280 | 3.2 | 11.3 | 0.00 | 0.00 | 0.00 | 87 | 1011.4 |
| 20260906125428 | 21 | 264 | 3.2 | 11.3 | 0.00 | 0.00 | 0.00 | 88 | 1011.4 |
| 20260906125325 | 21 | 264 | 4.8 | 11.3 | 0.00 | 0.00 | 0.00 | 88 | 1011.4 |
| 20260906125224 | 21 | 253 | 4.8 | 11.3 | 0.00 | 0.00 | 0.00 | 88 | 1011.4 |
| 20260906125143 | 21 | 261 | 4.8 | 9.7 | 0.00 | 0.00 | 0.00 | 89 | 1011.4 |
| 20260906125042 | 21 | 260 | 4.8 | 9.7 | 0.00 | 0.00 | 0.00 | 89 | 1011.4 |
| 20260906124959 | 21 | 258 | 3.2 | 9.7 | 0.00 | 0.00 | 0.00 | 89 | 1011.4 |
| 20260906124840 | 21 | 256 | 3.2 | 9.7 | 0.00 | 0.00 | 0.00 | 89 | 1011.4 |
| 20260906124739 | 21 | 254 | 3.2 | 9.7 | 0.00 | 0.00 | 0.00 | 89 | 1011.4 |
| 20260906124709 | 21 | 268 | 3.2 | 9.7 | 0.00 | 0.00 | 0.00 | 89 | 1011.4 |
| 20260906124547 | 21 | 271 | 1.6 | 9.7 | 0.00 | 0.00 | 0.00 | 89 | 1011.4 |
| 20260906124445 | 21 | 271 | 6.4 | 9.7 | 0.00 | 0.00 | 0.00 | 89 | 1011.4 |
| 20260906124403 | 21 | 272 | 6.4 | 9.7 | 0.00 | 0.00 | 0.00 | 88 | 1011.4 |
| 20260906124302 | 21 | 272 | 3.2 | 9.7 | 0.00 | 0.00 | 0.00 | 88 | 1011.5 |
| 20260906124140 | 21 | 272 | 0.0 | 9.7 | 0.00 | 0.00 | 0.00 | 88 | 1011.5 |
| 20260906124039 | 21 | 272 | 1.6 | 9.7 | 0.00 | 0.00 | 0.00 | 88 | 1011.5 |
| 20260906123941 | 21 | 272 | 3.2 | 9.7 | 0.00 | 0.00 | 0.00 | 88 | 1011.5 |
| 20260906123839 | 21 | 272 | 6.4 | 9.7 | 0.00 | 0.00 | 0.00 | 88 | 1011.5 |
| 20260906123740 | 21 | 280 | 3.2 | 8.0 | 0.00 | 0.00 | 0.00 | 88 | 1011.5 |
| 20260906123658 | 21 | 281 | 1.6 | 4.8 | 0.00 | 0.00 | 0.00 | 88 | 1011.5 |
| 20260906123535 | 21 | 282 | 1.6 | 4.8 | 0.00 | 0.00 | 0.00 | 88 | 1011.5 |
| 20260906123434 | 21 | 282 | 3.2 | 4.8 | 0.00 | 0.00 | 0.00 | 88 | 1011.5 |
| 20260906123332 | 21 | 282 | 1.6 | 4.8 | 0.00 | 0.00 | 0.00 | 88 | 1011.5 |
| 20260906123251 | 21 | 282 | 3.2 | 4.8 | 0.00 | 0.00 | 0.00 | 88 | 1011.5 |
| 20260906123204 | 21 | 284 | 1.6 | 4.8 | 0.00 | 0.00 | 0.00 | 88 | 1011.5 |
| 20260906123041 | 21 | 282 | 1.6 | 4.8 | 0.00 | 0.00 | 0.00 | 88 | 1011.5 |
| 20260906122939 | 20 | 280 | 1.6 | 4.8 | 0.00 | 0.00 | 0.00 | 87 | 1011.5 |
| 20260906122838 | 20 | 278 | 1.6 | 4.8 | 0.00 | 0.00 | 0.00 | 87 | 1011.5 |
| 20260906122737 | 20 | 281 | 4.8 | 4.8 | 0.00 | 0.00 | 0.00 | 87 | 1011.5 |
| 20260906122634 | 20 | 282 | 4.8 | 4.8 | 0.00 | 0.00 | 0.00 | 87 | 1011.5 |
| 20260906122533 | 20 | 282 | 3.2 | 4.8 | 0.00 | 0.00 | 0.00 | 87 | 1011.5 |
| 20260906122435 | 20 | 280 | 3.2 | 4.8 | 0.00 | 0.00 | 0.00 | 87 | 1011.5 |
| 20260906122334 | 20 | 284 | 3.2 | 4.8 | 0.00 | 0.00 | 0.00 | 87 | 1011.5 |
| 20260906122232 | 20 | 282 | 3.2 | 4.8 | 0.00 | 0.00 | 0.00 | 87 | 1011.5 |
| 20260906122129 | 20 | 282 | 3.2 | 4.8 | 0.00 | 0.00 | 0.00 | 87 | 1011.5 |
| 20260906122029 | 20 | 282 | 3.2 | 4.8 | 0.00 | 0.00 | 0.00 | 87 | 1011.5 |
| 20260906121925 | 20 | 284 | 3.2 | 4.8 | 0.00 | 0.00 | 0.00 | 87 | 1011.5 |
| 20260906121828 | 20 | 284 | 3.2 | 4.8 | 0.00 | 0.00 | 0.00 | 87 | 1011.5 |
| 20260906121728 | 20 | 280 | 3.2 | 4.8 | 0.00 | 0.00 | 0.00 | 87 | 1011.5 |
| 20260906121701 | 20 | 284 | 3.2 | 4.8 | 0.00 | 0.00 | 0.00 | 87 | 1011.5 |
| 20260906121558 | 20 | 282 | 3.2 | 4.8 | 0.00 | 0.00 | 0.00 | 87 | 1011.5 |
| 20260906121435 | 20 | 282 | 1.6 | 4.8 | 0.00 | 0.00 | 0.00 | 87 | 1011.5 |
| 20260906121334 | 20 | 282 | 3.2 | 4.8 | 0.00 | 0.00 | 0.00 | 87 | 1011.5 |
| 20260906121232 | 20 | 282 | 3.2 | 4.8 | 0.00 | 0.00 | 0.00 | 87 | 1011.3 |
| 20260906121131 | 20 | 282 | 1.6 | 6.4 | 0.00 | 0.00 | 0.00 | 87 | 1011.3 |
| 20260906121033 | 20 | 284 | 3.2 | 6.4 | 0.00 | 0.00 | 0.00 | 87 | 1011.3 |
| 20260906120932 | 20 | 284 | 3.2 | 6.4 | 0.00 | 0.00 | 0.00 | 87 | 1011.3 |
| 20260906120832 | 20 | 282 | 3.2 | 6.4 | 0.00 | 0.00 | 0.00 | 87 | 1011.3 |
| 20260906120730 | 20 | 282 | 3.2 | 6.4 | 0.00 | 0.00 | 0.00 | 87 | 1011.3 |
| 20260906120629 | 20 | 282 | 3.2 | 6.4 | 0.00 | 0.00 | 0.00 | 87 | 1011.3 |
| 20260906120527 | 20 | 281 | 3.2 | 6.4 | 0.00 | 0.00 | 0.00 | 87 | 1011.3 |
| 20260906120430 | 20 | 282 | 3.2 | 6.4 | 0.00 | 0.00 | 0.00 | 87 | 1011.3 |
| 20260906120328 | 20 | 282 | 3.2 | 6.4 | 0.00 | 0.00 | 0.00 | 87 | 1011.3 |
| 20260906120258 | 20 | 280 | 4.8 | 6.4 | 0.00 | 0.00 | 0.00 | 87 | 1011.3 |
| 20260906120146 | 20 | 280 | 3.2 | 6.4 | 0.00 | 0.00 | 0.00 | 87 | 1011.3 |
| 20260906120042 | 20 | 285 | 3.2 | 6.4 | 0.00 | 0.00 | 0.00 | 87 | 1011.3 |
| 20260906115941 | 20 | 294 | 3.2 | 4.8 | 0.00 | 0.00 | 0.00 | 87 | 1011.3 |
| 20260906115839 | 20 | 292 | 1.6 | 4.8 | 0.00 | 0.00 | 0.00 | 87 | 1011.3 |
| 20260906115738 | 20 | 292 | 1.6 | 4.8 | 0.00 | 0.00 | 0.00 | 87 | 1011.4 |
| 20260906115640 | 20 | 294 | 3.2 | 4.8 | 0.00 | 0.00 | 0.00 | 87 | 1011.4 |
| 20260906115539 | 20 | 294 | 3.2 | 4.8 | 0.00 | 0.00 | 0.00 | 87 | 1011.4 |
| 20260906115439 | 20 | 295 | 3.2 | 8.0 | 0.00 | 0.00 | 0.00 | 87 | 1011.4 |
| 20260906115337 | 20 | 295 | 1.6 | 8.0 | 0.00 | 0.00 | 0.00 | 87 | 1011.4 |
| 20260906115234 | 20 | 295 | 1.6 | 8.0 | 0.00 | 0.00 | 0.00 | 87 | 1011.4 |
| 20260906115131 | 20 | 299 | 1.6 | 9.7 | 0.00 | 0.00 | 0.00 | 87 | 1011.4 |
| 20260906115031 | 20 | 301 | 1.6 | 9.7 | 0.00 | 0.00 | 0.00 | 87 | 1011.4 |
| 20260906114932 | 20 | 301 | 1.6 | 9.7 | 0.00 | 0.00 | 0.00 | 87 | 1011.4 |
| 20260906114830 | 20 | 301 | 1.6 | 9.7 | 0.00 | 0.00 | 0.00 | 87 | 1011.4 |
| 20260906114729 | 20 | 301 | 1.6 | 9.7 | 0.00 | 0.00 | 0.00 | 87 | 1011.4 |
| 20260906114657 | 20 | 301 | 3.2 | 9.7 | 0.00 | 0.00 | 0.00 | 87 | 1011.4 |
| 20260906114535 | 20 | 302 | 3.2 | 9.7 | 0.00 | 0.00 | 0.00 | 87 | 1011.4 |
| 20260906114433 | 20 | 302 | 1.6 | 9.7 | 0.00 | 0.00 | 0.00 | 87 | 1011.4 |
| 20260906114331 | 20 | 304 | 6.4 | 9.7 | 0.00 | 0.00 | 0.00 | 87 | 1011.4 |
| 20260906114233 | 20 | 299 | 6.4 | 9.7 | 0.00 | 0.00 | 0.00 | 87 | 1011.3 |
| 20260906114151 | 20 | 304 | 4.8 | 9.7 | 0.00 | 0.00 | 0.00 | 87 | 1011.3 |
| 20260906114028 | 20 | 306 | 6.4 | 9.7 | 0.00 | 0.00 | 0.00 | 86 | 1011.3 |
| 20260906113927 | 20 | 11 | 3.2 | 4.8 | 0.00 | 0.00 | 0.00 | 86 | 1011.3 |
| 20260906113846 | 20 | 13 | 1.6 | 3.2 | 0.00 | 0.00 | 0.00 | 86 | 1011.3 |
| 20260906113803 | 21 | 13 | 1.6 | 4.8 | 0.00 | 0.00 | 0.00 | 86 | 1011.3 |
| 20260906113640 | 21 | 16 | 0.0 | 4.8 | 0.00 | 0.00 | 0.00 | 86 | 1011.3 |
| 20260906113542 | 21 | 14 | 0.0 | 4.8 | 0.00 | 0.00 | 0.00 | 86 | 1011.3 |
| 20260906113424 | 21 | 13 | 0.0 | 4.8 | 0.00 | 0.00 | 0.00 | 86 | 1011.3 |
| 20260906113342 | 21 | 17 | 0.0 | 4.8 | 0.00 | 0.00 | 0.00 | 86 | 1011.3 |
| 20260906113241 | 21 | 17 | 0.0 | 4.8 | 0.00 | 0.00 | 0.00 | 86 | 1011.3 |
| 20260906113212 | 21 | 17 | 1.6 | 8.0 | 0.00 | 0.00 | 0.00 | 86 | 1011.3 |
| 20260906113029 | 21 | 17 | 3.2 | 8.0 | 0.00 | 0.00 | 0.00 | 86 | 1011.3 |
| 20260906112926 | 21 | 16 | 3.2 | 8.0 | 0.00 | 0.00 | 0.00 | 86 | 1011.3 |
| 20260906112845 | 21 | 14 | 3.2 | 8.0 | 0.00 | 0.00 | 0.00 | 86 | 1011.3 |
| 20260906112741 | 21 | 17 | 3.2 | 8.0 | 0.00 | 0.00 | 0.00 | 86 | 1011.2 |
| 20260906112624 | 21 | 17 | 3.2 | 8.0 | 0.00 | 0.00 | 0.00 | 86 | 1011.2 |
| 20260906112542 | 21 | 17 | 4.8 | 8.0 | 0.00 | 0.00 | 0.00 | 86 | 1011.2 |
| 20260906112441 | 21 | 17 | 4.8 | 8.0 | 0.00 | 0.00 | 0.00 | 86 | 1011.2 |
| 20260906112339 | 21 | 17 | 4.8 | 8.0 | 0.00 | 0.00 | 0.00 | 86 | 1011.2 |
| 20260906112237 | 21 | 17 | 8.0 | 8.0 | 0.00 | 0.00 | 0.00 | 86 | 1011.2 |
| 20260906112135 | 21 | 17 | 6.4 | 8.0 | 0.00 | 0.00 | 0.00 | 86 | 1011.2 |
| 20260906112053 | 21 | 16 | 4.8 | 8.0 | 0.00 | 0.00 | 0.00 | 86 | 1011.2 |
| 20260906111930 | 21 | 14 | 3.2 | 8.0 | 0.00 | 0.00 | 0.00 | 85 | 1011.2 |
| 20260906111836 | 21 | 14 | 3.2 | 8.0 | 0.00 | 0.00 | 0.00 | 86 | 1011.2 |
| 20260906111734 | 21 | 16 | 3.2 | 8.0 | 0.00 | 0.00 | 0.00 | 85 | 1011.2 |
| 20260906111703 | 21 | 17 | 3.2 | 8.0 | 0.00 | 0.00 | 0.00 | 85 | 1011.2 |
| 20260906111601 | 21 | 17 | 3.2 | 8.0 | 0.00 | 0.00 | 0.00 | 85 | 1011.2 |
| 20260906111438 | 21 | 17 | 3.2 | 8.0 | 0.00 | 0.00 | 0.00 | 85 | 1011.2 |
| 20260906111336 | 21 | 16 | 4.8 | 8.0 | 0.00 | 0.00 | 0.00 | 85 | 1011.2 |
| 20260906111233 | 21 | 13 | 4.8 | 8.0 | 0.00 | 0.00 | 0.00 | 85 | 1010.8 |
| 20260906111131 | 21 | 16 | 4.8 | 8.0 | 0.00 | 0.00 | 0.00 | 85 | 1010.8 |
| 20260906111033 | 21 | 14 | 4.8 | 4.8 | 0.00 | 0.00 | 0.00 | 85 | 1010.8 |
| 20260906110935 | 21 | 14 | 3.2 | 4.8 | 0.00 | 0.00 | 0.00 | 85 | 1010.8 |
| 20260906110832 | 21 | 14 | 0.0 | 3.2 | 0.00 | 0.00 | 0.00 | 85 | 1010.8 |
| 20260906110733 | 21 | 14 | 0.0 | 3.2 | 0.00 | 0.00 | 0.00 | 85 | 1010.8 |
| 20260906110630 | 21 | 16 | 0.0 | 3.2 | 0.00 | 0.00 | 0.00 | 85 | 1010.8 |
| 20260906110549 | 21 | 14 | 1.6 | 3.2 | 0.00 | 0.00 | 0.00 | 85 | 1010.8 |
| 20260906110446 | 21 | 14 | 1.6 | 4.8 | 0.00 | 0.00 | 0.00 | 85 | 1010.8 |
| 20260906110404 | 21 | 14 | 0.0 | 4.8 | 0.00 | 0.00 | 0.00 | 85 | 1010.8 |
| 20260906110237 | 21 | 14 | 1.6 | 4.8 | 0.00 | 0.00 | 0.00 | 85 | 1010.8 |
| 20260906110146 | 21 | 14 | 1.6 | 4.8 | 0.00 | 0.00 | 0.00 | 85 | 1010.8 |
| 20260906110043 | 21 | 13 | 0.0 | 6.4 | 0.00 | 0.00 | 0.00 | 85 | 1010.8 |
| 20260906105941 | 21 | 14 | 0.0 | 6.4 | 0.00 | 0.00 | 0.00 | 85 | 1010.8 |
| 20260906105858 | 21 | 13 | 1.6 | 6.4 | 0.00 | 0.00 | 0.00 | 84 | 1010.8 |
| 20260906105736 | 21 | 14 | 1.6 | 6.4 | 0.00 | 0.00 | 0.00 | 84 | 1010.3 |
| 20260906105635 | 21 | 14 | 1.6 | 6.4 | 0.00 | 0.00 | 0.00 | 84 | 1010.3 |
| 20260906105533 | 21 | 14 | 1.6 | 8.0 | 0.00 | 0.00 | 0.00 | 84 | 1010.3 |
| 20260906105435 | 21 | 13 | 3.2 | 9.7 | 0.00 | 0.00 | 0.00 | 84 | 1010.3 |
| 20260906105356 | 21 | 14 | 3.2 | 9.7 | 0.00 | 0.00 | 0.00 | 84 | 1010.3 |
| 20260906105234 | 21 | 13 | 4.8 | 11.3 | 0.00 | 0.00 | 0.00 | 84 | 1010.3 |
| 20260906105132 | 21 | 16 | 1.6 | 12.9 | 0.00 | 0.00 | 0.00 | 84 | 1010.3 |
| 20260906105030 | 21 | 16 | 3.2 | 12.9 | 0.00 | 0.00 | 0.00 | 84 | 1010.3 |
| 20260906104930 | 21 | 18 | 1.6 | 12.9 | 0.00 | 0.00 | 0.00 | 84 | 1010.3 |
| 20260906104829 | 21 | 18 | 3.2 | 12.9 | 0.00 | 0.00 | 0.00 | 84 | 1010.3 |
| 20260906104742 | 21 | 20 | 4.8 | 14.5 | 0.00 | 0.00 | 0.00 | 83 | 1010.3 |
| 20260906104651 | 21 | 20 | 8.0 | 16.1 | 0.00 | 0.00 | 0.00 | 83 | 1010.3 |
| 20260906104529 | 21 | 20 | 9.7 | 16.1 | 0.00 | 0.00 | 0.00 | 83 | 1010.3 |
| 20260906104429 | 21 | 20 | 9.7 | 16.1 | 0.00 | 0.00 | 0.00 | 83 | 1010.3 |
| 20260906104347 | 21 | 17 | 11.3 | 16.1 | 0.00 | 0.00 | 0.00 | 83 | 1010.3 |
| 20260906104223 | 21 | 23 | 11.3 | 16.1 | 0.00 | 0.00 | 0.00 | 83 | 1010.2 |
| 20260906104125 | 21 | 23 | 11.3 | 16.1 | 0.00 | 0.00 | 0.00 | 83 | 1010.2 |
| 20260906104043 | 21 | 11 | 12.9 | 16.1 | 0.00 | 0.00 | 0.00 | 83 | 1010.2 |
| 20260906103945 | 21 | 10 | 12.9 | 17.7 | 0.00 | 0.00 | 0.00 | 83 | 1010.2 |
| 20260906103902 | 21 | 6 | 12.9 | 17.7 | 0.00 | 0.00 | 0.00 | 82 | 1010.2 |
| 20260906103759 | 21 | 8 | 14.5 | 17.7 | 0.00 | 0.00 | 0.00 | 83 | 1010.2 |
| 20260906103638 | 21 | 10 | 12.9 | 17.7 | 0.00 | 0.00 | 0.00 | 82 | 1010.2 |
| 20260906103535 | 21 | 17 | 11.3 | 17.7 | 0.00 | 0.00 | 0.00 | 82 | 1010.2 |
| 20260906103455 | 21 | 17 | 11.3 | 17.7 | 0.00 | 0.00 | 0.00 | 82 | 1010.2 |
| 20260906103331 | 21 | 25 | 11.3 | 17.7 | 0.00 | 0.00 | 0.00 | 82 | 1010.2 |
| 20260906103242 | 21 | 20 | 14.5 | 17.7 | 0.00 | 0.00 | 0.00 | 82 | 1010.2 |
| 20260906103153 | 21 | 14 | 14.5 | 17.7 | 0.00 | 0.00 | 0.00 | 83 | 1010.2 |
| 20260906103033 | 21 | 11 | 12.9 | 17.7 | 0.00 | 0.00 | 0.00 | 83 | 1010.2 |
| 20260906102932 | 21 | 1 | 9.7 | 16.1 | 0.00 | 0.00 | 0.00 | 83 | 1010.2 |
| 20260906102830 | 21 | 1 | 3.2 | 16.1 | 0.00 | 0.00 | 0.00 | 82 | 1010.2 |
| 20260906102730 | 21 | 360 | 1.6 | 16.1 | 0.00 | 0.00 | 0.00 | 81 | 1010.5 |
| 20260906102632 | 21 | 360 | 3.2 | 16.1 | 0.00 | 0.00 | 0.00 | 81 | 1010.5 |
| 20260906102530 | 21 | 360 | 4.8 | 16.1 | 0.00 | 0.00 | 0.00 | 81 | 1010.5 |
| 20260906102428 | 21 | 360 | 6.4 | 16.1 | 0.00 | 0.00 | 0.00 | 81 | 1010.5 |
| 20260906102330 | 21 | 360 | 9.7 | 16.1 | 0.00 | 0.00 | 0.00 | 81 | 1010.5 |
| 20260906102230 | 21 | 360 | 8.0 | 16.1 | 0.00 | 0.00 | 0.00 | 81 | 1010.5 |
| 20260906102132 | 21 | 360 | 4.8 | 12.9 | 0.00 | 0.00 | 0.00 | 81 | 1010.5 |
| 20260906102030 | 21 | 360 | 6.4 | 12.9 | 0.00 | 0.00 | 0.00 | 81 | 1010.5 |
| 20260906101948 | 21 | 360 | 6.4 | 12.9 | 0.00 | 0.00 | 0.00 | 81 | 1010.5 |
| 20260906101825 | 21 | 322 | 8.0 | 12.9 | 0.00 | 0.00 | 0.00 | 81 | 1010.5 |
| 20260906101724 | 21 | 360 | 6.4 | 12.9 | 0.00 | 0.00 | 0.00 | 81 | 1010.5 |
| 20260906101659 | 21 | 3 | 8.0 | 12.9 | 0.00 | 0.00 | 0.00 | 81 | 1010.5 |
| 20260906101538 | 21 | 1 | 8.0 | 12.9 | 0.00 | 0.00 | 0.00 | 82 | 1010.5 |
| 20260906101437 | 21 | 360 | 9.7 | 12.9 | 0.00 | 0.00 | 0.00 | 82 | 1010.5 |
| 20260906101336 | 21 | 344 | 9.7 | 12.9 | 0.00 | 0.00 | 0.00 | 82 | 1010.5 |
| 20260906101234 | 21 | 337 | 8.0 | 11.3 | 0.00 | 0.00 | 0.00 | 82 | 1010.0 |
| 20260906101132 | 21 | 325 | 6.4 | 11.3 | 0.00 | 0.00 | 0.00 | 83 | 1010.0 |
| 20260906101031 | 21 | 315 | 4.8 | 8.0 | 0.00 | 0.00 | 0.00 | 83 | 1010.0 |
| 20260906100933 | 21 | 315 | 3.2 | 4.8 | 0.00 | 0.00 | 0.00 | 83 | 1010.0 |
| 20260906100851 | 21 | 315 | 0.0 | 4.8 | 0.00 | 0.00 | 0.00 | 83 | 1010.0 |
| 20260906100752 | 21 | 313 | 0.0 | 4.8 | 0.00 | 0.00 | 0.00 | 82 | 1010.0 |
| 20260906100631 | 21 | 313 | 1.6 | 4.8 | 0.00 | 0.00 | 0.00 | 82 | 1010.0 |
| 20260906100435 | 21 | 315 | 3.2 | 8.0 | 0.00 | 0.00 | 0.00 | 82 | 1010.0 |
| 20260906100332 | 21 | 315 | 3.2 | 8.0 | 0.00 | 0.00 | 0.00 | 82 | 1010.0 |
| 20260906100231 | 21 | 315 | 4.8 | 9.7 | 0.00 | 0.00 | 0.00 | 82 | 1010.0 |
| 20260906100155 | 21 | 282 | 3.2 | 9.7 | 0.00 | 0.00 | 0.00 | 85 | 1010.0 |
| 20260906095928 | 21 | 284 | 3.2 | 12.9 | 0.00 | 0.00 | 0.00 | 86 | 1010.0 |
| 20260906095826 | 21 | 282 | 3.2 | 12.9 | 0.00 | 0.00 | 0.00 | 86 | 1010.0 |
| 20260906095724 | 21 | 281 | 4.8 | 12.9 | 0.00 | 0.00 | 0.00 | 86 | 1010.0 |
| 20260906095643 | 21 | 258 | 3.2 | 12.9 | 0.00 | 0.00 | 0.00 | 85 | 1010.0 |
| 20260906095542 | 21 | 253 | 3.2 | 12.9 | 0.00 | 0.00 | 0.00 | 85 | 1010.0 |
| 20260906095439 | 21 | 253 | 4.8 | 12.9 | 0.00 | 0.00 | 0.00 | 86 | 1010.0 |
| 20260906095342 | 21 | 253 | 8.0 | 12.9 | 0.00 | 0.00 | 0.00 | 86 | 1010.0 |
| 20260906095300 | 21 | 254 | 8.0 | 12.9 | 0.00 | 0.00 | 0.00 | 86 | 1010.0 |
| 20260906095138 | 21 | 267 | 9.7 | 12.9 | 0.00 | 0.00 | 0.00 | 86 | 1010.0 |
| 20260906095037 | 21 | 270 | 9.7 | 12.9 | 0.00 | 0.00 | 0.00 | 86 | 1010.0 |
| 20260906094934 | 21 | 272 | 8.0 | 12.9 | 0.00 | 0.00 | 0.00 | 85 | 1010.0 |
| 20260906094833 | 21 | 275 | 8.0 | 12.9 | 0.00 | 0.00 | 0.00 | 85 | 1010.0 |
| 20260906094743 | 21 | 280 | 6.4 | 12.9 | 0.00 | 0.00 | 0.00 | 85 | 1010.0 |
| 20260906094653 | 21 | 280 | 3.2 | 12.9 | 0.00 | 0.00 | 0.00 | 85 | 1010.0 |
| 20260906094535 | 21 | 280 | 4.8 | 12.9 | 0.00 | 0.00 | 0.00 | 85 | 1010.0 |
| 20260906094433 | 21 | 281 | 4.8 | 12.9 | 0.00 | 0.00 | 0.00 | 85 | 1010.0 |
| 20260906094332 | 21 | 288 | 6.4 | 12.9 | 0.00 | 0.00 | 0.00 | 85 | 1010.0 |
| 20260906094231 | 21 | 287 | 8.0 | 12.9 | 0.00 | 0.00 | 0.00 | 85 | 1009.9 |
| 20260906094130 | 21 | 265 | 4.8 | 12.9 | 0.00 | 0.00 | 0.00 | 86 | 1009.9 |
| 20260906094027 | 21 | 148 | 4.8 | 12.9 | 0.00 | 0.00 | 0.00 | 88 | 1009.9 |
| 20260906093947 | 21 | 148 | 6.4 | 12.9 | 0.00 | 0.00 | 0.00 | 88 | 1009.9 |
| 20260906093827 | 21 | 143 | 8.0 | 12.9 | 0.00 | 0.00 | 0.00 | 88 | 1009.9 |
| 20260906093725 | 21 | 141 | 6.4 | 12.9 | 0.00 | 0.00 | 0.00 | 88 | 1009.9 |
| 20260906093624 | 21 | 141 | 6.4 | 12.9 | 0.00 | 0.00 | 0.00 | 88 | 1009.9 |
| 20260906093541 | 21 | 143 | 8.0 | 12.9 | 0.00 | 0.00 | 0.00 | 88 | 1009.9 |
| 20260906093440 | 21 | 133 | 9.7 | 12.9 | 0.00 | 0.00 | 0.00 | 88 | 1009.9 |
| 20260906093339 | 21 | 138 | 11.3 | 12.9 | 0.00 | 0.00 | 0.00 | 88 | 1009.9 |
| 20260906093238 | 21 | 133 | 9.7 | 12.9 | 0.00 | 0.00 | 0.00 | 88 | 1009.9 |
| 20260906093212 | 21 | 134 | 8.0 | 12.9 | 0.00 | 0.00 | 0.00 | 88 | 1009.9 |
| 20260906093028 | 20 | 137 | 9.7 | 12.9 | 0.00 | 0.00 | 0.00 | 88 | 1009.9 |
| 20260906092926 | 20 | 131 | 8.0 | 12.9 | 0.00 | 0.00 | 0.00 | 88 | 1009.9 |
| 20260906092824 | 20 | 140 | 8.0 | 12.9 | 0.00 | 0.00 | 0.00 | 88 | 1009.9 |
| 20260906092742 | 20 | 134 | 8.0 | 12.9 | 0.00 | 0.00 | 0.00 | 88 | 1010.1 |
| 20260906092700 | 20 | 134 | 9.7 | 12.9 | 0.00 | 0.00 | 0.00 | 88 | 1010.1 |
| 20260906092557 | 20 | 134 | 9.7 | 12.9 | 0.00 | 0.00 | 0.00 | 88 | 1010.1 |
| 20260906092434 | 20 | 120 | 9.7 | 12.9 | 0.00 | 0.00 | 0.00 | 88 | 1010.1 |
| 20260906092336 | 20 | 128 | 6.4 | 11.3 | 0.00 | 0.00 | 0.00 | 88 | 1010.1 |
| 20260906092255 | 20 | 143 | 6.4 | 11.3 | 0.00 | 0.00 | 0.00 | 88 | 1010.1 |
| 20260906092132 | 20 | 144 | 6.4 | 12.9 | 0.00 | 0.00 | 0.00 | 88 | 1010.1 |
| 20260906092050 | 20 | 136 | 8.0 | 16.1 | 0.00 | 0.00 | 0.00 | 87 | 1010.1 |
| 20260906091928 | 20 | 134 | 8.0 | 17.7 | 0.00 | 0.00 | 0.00 | 88 | 1010.1 |
| 20260906091829 | 20 | 133 | 4.8 | 17.7 | 0.00 | 0.00 | 0.00 | 88 | 1010.1 |
| 20260906091737 | 20 | 130 | 8.0 | 17.7 | 0.00 | 0.00 | 0.00 | 89 | 1010.1 |
| 20260906091646 | 20 | 128 | 8.0 | 19.3 | 0.00 | 0.00 | 0.00 | 89 | 1010.1 |
| 20260906091526 | 20 | 128 | 9.7 | 19.3 | 0.00 | 0.00 | 0.00 | 89 | 1010.1 |
| 20260906091445 | 20 | 133 | 9.7 | 19.3 | 0.00 | 0.00 | 0.00 | 89 | 1010.1 |
| 20260906091404 | 20 | 126 | 9.7 | 19.3 | 0.00 | 0.00 | 0.00 | 89 | 1010.1 |
| 20260906091240 | 20 | 116 | 9.7 | 19.3 | 0.00 | 0.00 | 0.00 | 89 | 1010.3 |
| 20260906091139 | 20 | 120 | 12.9 | 19.3 | 0.00 | 0.00 | 0.00 | 89 | 1010.3 |
| 20260906091037 | 20 | 114 | 14.5 | 19.3 | 0.00 | 0.00 | 0.00 | 89 | 1010.3 |
| 20260906090957 | 20 | 104 | 16.1 | 19.3 | 0.00 | 0.00 | 0.00 | 89 | 1010.3 |
| 20260906090835 | 20 | 120 | 16.1 | 19.3 | 0.00 | 0.00 | 0.00 | 89 | 1010.3 |
| 20260906090733 | 20 | 112 | 16.1 | 19.3 | 0.00 | 0.00 | 0.00 | 89 | 1010.3 |
| 20260906090636 | 20 | 106 | 14.5 | 20.9 | 0.00 | 0.00 | 0.00 | 89 | 1010.3 |
| 20260906090534 | 20 | 112 | 16.1 | 20.9 | 0.00 | 0.00 | 0.00 | 89 | 1010.3 |
| 20260906090453 | 20 | 113 | 11.3 | 20.9 | 0.00 | 0.00 | 0.00 | 89 | 1010.3 |
| 20260906090331 | 20 | 121 | 9.7 | 20.9 | 0.00 | 0.00 | 0.00 | 89 | 1010.3 |
| 20260906090241 | 20 | 110 | 12.9 | 20.9 | 0.00 | 0.00 | 0.00 | 89 | 1010.3 |
| 20260906090152 | 20 | 123 | 12.9 | 20.9 | 0.00 | 0.00 | 0.00 | 88 | 1010.3 |
| 20260906090030 | 20 | 110 | 17.7 | 20.9 | 0.00 | 0.00 | 0.00 | 88 | 1010.3 |
| 20260906085948 | 20 | 104 | 16.1 | 27.4 | 0.00 | 0.00 | 0.00 | 88 | 1010.3 |
| 20260906085830 | 20 | 100 | 17.7 | 27.4 | 0.00 | 0.00 | 0.00 | 87 | 1010.3 |
| 20260906085728 | 20 | 96 | 14.5 | 27.4 | 0.00 | 0.00 | 0.00 | 87 | 1010.1 |
| 20260906085626 | 20 | 92 | 16.1 | 27.4 | 0.00 | 0.00 | 0.00 | 88 | 1010.1 |
| 20260906085525 | 20 | 86 | 17.7 | 27.4 | 0.00 | 0.00 | 0.00 | 88 | 1010.1 |
| 20260906085443 | 20 | 86 | 16.1 | 29.0 | 0.00 | 0.00 | 0.00 | 88 | 1010.1 |
| 20260906085341 | 20 | 88 | 16.1 | 29.0 | 0.00 | 0.00 | 0.00 | 88 | 1010.1 |
| 20260906085240 | 20 | 68 | 14.5 | 29.0 | 0.00 | 0.00 | 0.00 | 89 | 1010.1 |
| 20260906085203 | 20 | 96 | 19.3 | 29.0 | 0.00 | 0.00 | 0.00 | 89 | 1010.1 |
| 20260906085039 | 20 | 80 | 20.9 | 29.0 | 0.00 | 0.00 | 0.00 | 89 | 1010.1 |
| 20260906084937 | 20 | 90 | 20.9 | 30.6 | 0.00 | 0.00 | 0.00 | 90 | 1010.1 |
| 20260906084856 | 20 | 89 | 17.7 | 30.6 | 0.00 | 0.00 | 0.00 | 90 | 1010.1 |
| 20260906084732 | 20 | 104 | 16.1 | 30.6 | 0.00 | 0.00 | 0.00 | 90 | 1010.1 |
| 20260906084701 | 20 | 85 | 20.9 | 30.6 | 0.00 | 0.00 | 0.00 | 90 | 1010.1 |
| 20260906084538 | 20 | 93 | 20.9 | 30.6 | 0.00 | 0.00 | 0.00 | 90 | 1010.1 |
| 20260906084438 | 20 | 92 | 19.3 | 30.6 | 0.00 | 0.00 | 0.00 | 91 | 1010.1 |
| 20260906084340 | 20 | 95 | 20.9 | 30.6 | 0.00 | 0.00 | 0.00 | 91 | 1010.1 |
| 20260906084238 | 20 | 78 | 17.7 | 30.6 | 0.00 | 0.00 | 0.00 | 91 | 1009.8 |
| 20260906084157 | 20 | 83 | 22.5 | 30.6 | 0.00 | 0.00 | 0.00 | 91 | 1009.8 |
| 20260906084034 | 20 | 82 | 22.5 | 29.0 | 0.00 | 0.00 | 0.00 | 92 | 1009.8 |
| 20260906083933 | 20 | 147 | 20.9 | 27.4 | 0.00 | 0.00 | 0.00 | 92 | 1009.8 |
| 20260906083830 | 20 | 110 | 20.9 | 27.4 | 0.00 | 0.00 | 0.00 | 92 | 1009.8 |
| 20260906083728 | 20 | 95 | 20.9 | 27.4 | 0.00 | 0.00 | 0.00 | 92 | 1009.8 |
| 20260906083626 | 20 | 110 | 19.3 | 25.7 | 0.00 | 0.00 | 0.00 | 92 | 1009.8 |
| 20260906083528 | 20 | 76 | 19.3 | 25.7 | 0.00 | 0.00 | 0.00 | 92 | 1009.8 |
| 20260906083427 | 20 | 110 | 20.9 | 29.0 | 0.00 | 0.00 | 0.00 | 92 | 1009.8 |
| 20260906083325 | 20 | 119 | 16.1 | 32.2 | 0.00 | 0.00 | 0.00 | 92 | 1009.8 |
| 20260906083233 | 20 | 112 | 12.9 | 32.2 | 0.00 | 0.00 | 0.00 | 92 | 1009.8 |
| 20260906083143 | 20 | 134 | 14.5 | 38.6 | 0.00 | 0.00 | 0.00 | 92 | 1009.8 |
| 20260906083043 | 20 | 95 | 14.5 | 41.8 | 0.00 | 0.00 | 0.00 | 92 | 1009.8 |
| 20260906082941 | 20 | 130 | 12.9 | 41.8 | 0.00 | 0.00 | 0.00 | 92 | 1009.8 |
| 20260906082900 | 20 | 121 | 16.1 | 41.8 | 0.00 | 0.00 | 0.00 | 92 | 1009.8 |
| 20260906082741 | 20 | 99 | 12.9 | 41.8 | 0.00 | 0.00 | 0.00 | 92 | 1010.0 |
| 20260906082639 | 20 | 145 | 16.1 | 41.8 | 0.00 | 0.00 | 0.00 | 92 | 1010.0 |
| 20260906082538 | 20 | 80 | 20.9 | 41.8 | 0.00 | 0.00 | 0.00 | 92 | 1010.0 |
| 20260906082436 | 20 | 124 | 22.5 | 41.8 | 0.00 | 0.00 | 0.00 | 92 | 1010.0 |
| 20260906082333 | 20 | 97 | 25.7 | 41.8 | 0.00 | 0.00 | 0.00 | 92 | 1010.0 |
| 20260906082232 | 20 | 90 | 29.0 | 41.8 | 0.00 | 0.00 | 0.00 | 92 | 1010.0 |
| 20260906082150 | 20 | 83 | 25.7 | 38.6 | 0.00 | 0.00 | 0.00 | 92 | 1010.0 |
| 20260906082052 | 20 | 121 | 32.2 | 38.6 | 0.00 | 0.00 | 0.00 | 92 | 1010.0 |
| 20260906081949 | 20 | 85 | 24.1 | 38.6 | 0.00 | 0.00 | 0.00 | 92 | 1010.0 |
| 20260906081827 | 20 | 90 | 25.7 | 38.6 | 0.00 | 0.00 | 0.00 | 92 | 1010.0 |
| 20260906081725 | 20 | 82 | 25.7 | 38.6 | 0.00 | 0.00 | 0.00 | 92 | 1010.0 |
| 20260906081655 | 20 | 93 | 22.5 | 38.6 | 0.00 | 0.00 | 0.00 | 92 | 1010.0 |
| 20260906081552 | 20 | 110 | 27.4 | 38.6 | 0.00 | 0.00 | 0.00 | 92 | 1010.0 |
| 20260906081451 | 20 | 80 | 27.4 | 38.6 | 0.00 | 0.00 | 0.00 | 92 | 1010.0 |
| 20260906081327 | 20 | 93 | 24.1 | 40.2 | 0.00 | 0.00 | 0.00 | 92 | 1010.0 |
| 20260906081226 | 20 | 97 | 24.1 | 40.2 | 0.00 | 0.00 | 0.00 | 92 | 1010.5 |
| 20260906081128 | 20 | 75 | 25.7 | 40.2 | 0.00 | 0.00 | 0.00 | 92 | 1010.5 |
| 20260906081028 | 20 | 121 | 22.5 | 40.2 | 0.00 | 0.00 | 0.00 | 92 | 1010.5 |
| 20260906080926 | 20 | 65 | 20.9 | 43.5 | 0.00 | 0.00 | 0.00 | 92 | 1010.5 |
| 20260906080824 | 20 | 93 | 27.4 | 46.7 | 0.00 | 0.00 | 0.00 | 92 | 1010.5 |
| 20260906080723 | 20 | 79 | 27.4 | 46.7 | 0.00 | 0.00 | 0.00 | 92 | 1010.5 |
| 20260906080625 | 20 | 73 | 29.0 | 46.7 | 0.00 | 0.00 | 0.00 | 92 | 1010.5 |
| 20260906080527 | 20 | 83 | 30.6 | 46.7 | 0.00 | 0.00 | 0.00 | 92 | 1010.5 |
| 20260906080430 | 20 | 82 | 29.0 | 46.7 | 0.00 | 0.00 | 0.00 | 92 | 1010.5 |
| 20260906080327 | 20 | 48 | 24.1 | 46.7 | 0.00 | 0.00 | 0.00 | 92 | 1010.5 |
| 20260906080226 | 20 | 71 | 35.4 | 46.7 | 0.00 | 0.00 | 0.00 | 92 | 1010.5 |
| 20260906080155 | 20 | 88 | 33.8 | 46.7 | 0.00 | 0.00 | 0.00 | 92 | 1010.5 |
| 20260906080032 | 20 | 47 | 33.8 | 46.7 | 0.00 | 0.00 | 0.00 | 92 | 1010.5 |
| 20260906075930 | 20 | 75 | 35.4 | 46.7 | 0.00 | 0.00 | 0.00 | 92 | 1010.5 |
| 20260906075828 | 20 | 88 | 33.8 | 43.5 | 0.00 | 0.00 | 0.00 | 92 | 1010.5 |
| 20260906075750 | 20 | 76 | 33.8 | 43.5 | 0.00 | 0.00 | 0.00 | 92 | 1011.1 |
| 20260906075629 | 20 | 73 | 33.8 | 43.5 | 0.00 | 0.00 | 0.00 | 92 | 1011.1 |
| 20260906075547 | 20 | 82 | 32.2 | 43.5 | 0.00 | 0.00 | 0.00 | 92 | 1011.1 |
| 20260906075445 | 20 | 89 | 33.8 | 43.5 | 0.00 | 0.00 | 0.00 | 92 | 1011.1 |
| 20260906075403 | 20 | 83 | 32.2 | 43.5 | 0.00 | 0.00 | 0.00 | 92 | 1011.1 |
| 20260906075242 | 20 | 62 | 32.2 | 43.5 | 0.00 | 0.00 | 0.00 | 92 | 1011.1 |
| 20260906075140 | 20 | 62 | 30.6 | 43.5 | 0.00 | 0.00 | 0.00 | 92 | 1011.1 |
| 20260906075038 | 20 | 68 | 29.0 | 41.8 | 0.00 | 0.00 | 0.00 | 92 | 1011.1 |
| 20260906074940 | 20 | 69 | 29.0 | 41.8 | 0.00 | 0.00 | 0.00 | 92 | 1011.1 |
| 20260906074838 | 20 | 69 | 27.4 | 41.8 | 0.00 | 0.00 | 0.00 | 92 | 1011.1 |
| 20260906074757 | 20 | 52 | 25.7 | 41.8 | 0.00 | 0.00 | 0.00 | 92 | 1011.1 |
| 20260906074707 | 20 | 48 | 20.9 | 41.8 | 0.00 | 0.00 | 0.00 | 92 | 1011.1 |
| 20260906074543 | 20 | 44 | 27.4 | 41.8 | 0.00 | 0.00 | 0.00 | 92 | 1011.1 |
| 20260906074441 | 20 | 55 | 27.4 | 41.8 | 0.00 | 0.00 | 0.00 | 92 | 1011.1 |
| 20260906074338 | 20 | 68 | 25.7 | 40.2 | 0.00 | 0.00 | 0.00 | 92 | 1011.1 |
| 20260906074236 | 20 | 44 | 25.7 | 40.2 | 0.00 | 0.00 | 0.00 | 92 | 1011.5 |
| 20260906074134 | 20 | 42 | 25.7 | 40.2 | 0.00 | 0.00 | 0.00 | 92 | 1011.5 |
| 20260906074037 | 20 | 71 | 25.7 | 40.2 | 0.00 | 0.00 | 0.00 | 92 | 1011.5 |
| 20260906073936 | 20 | 42 | 24.1 | 40.2 | 0.00 | 0.00 | 0.00 | 92 | 1011.5 |
| 20260906073836 | 20 | 66 | 27.4 | 40.2 | 0.00 | 0.00 | 0.00 | 92 | 1011.5 |
| 20260906073734 | 21 | 52 | 24.1 | 40.2 | 0.00 | 0.00 | 0.00 | 92 | 1011.5 |
| 20260906073633 | 21 | 37 | 30.6 | 40.2 | 0.00 | 0.00 | 0.00 | 92 | 1011.5 |
| 20260906073532 | 21 | 51 | 30.6 | 40.2 | 0.00 | 0.00 | 0.00 | 91 | 1011.5 |
| 20260906073450 | 21 | 27 | 24.1 | 38.6 | 0.00 | 0.00 | 0.00 | 91 | 1011.5 |
| 20260906073332 | 21 | 64 | 24.1 | 41.8 | 0.00 | 0.00 | 0.00 | 91 | 1011.5 |
| 20260906073250 | 21 | 41 | 24.1 | 41.8 | 0.00 | 0.00 | 0.00 | 91 | 1011.5 |
| 20260906073220 | 21 | 42 | 24.1 | 41.8 | 0.00 | 0.00 | 0.00 | 91 | 1011.5 |
| 20260906073036 | 21 | 55 | 22.5 | 41.8 | 0.00 | 0.00 | 0.00 | 91 | 1011.5 |
| 20260906072935 | 21 | 62 | 25.7 | 41.8 | 0.00 | 0.00 | 0.00 | 91 | 1011.5 |
| 20260906072837 | 21 | 69 | 20.9 | 41.8 | 0.00 | 0.00 | 0.00 | 91 | 1011.5 |
| 20260906072735 | 21 | 52 | 25.7 | 41.8 | 0.00 | 0.00 | 0.00 | 91 | 1011.8 |
| 20260906072634 | 21 | 56 | 27.4 | 41.8 | 0.00 | 0.00 | 0.00 | 91 | 1011.8 |
| 20260906072556 | 21 | 42 | 24.1 | 41.8 | 0.00 | 0.00 | 0.00 | 91 | 1011.8 |
| 20260906072434 | 21 | 59 | 24.1 | 40.2 | 0.00 | 0.00 | 0.00 | 91 | 1011.8 |
| 20260906072332 | 21 | 62 | 27.4 | 40.2 | 0.00 | 0.00 | 0.00 | 91 | 1011.8 |
| 20260906072152 | 21 | 85 | 24.1 | 0.0 | 0.00 | 0.00 | 0.00 | 91 | 1011.8 |
| 20260906072044 | 21 | 42 | 24.1 | 0.0 | 0.00 | 0.00 | 0.00 | 91 | 1011.8 |
| 20260906072001 | 21 | 45 | 27.4 | 40.2 | 0.00 | 0.00 | 0.00 | 91 | 1011.8 |
| 20260906071921 | 21 | 38 | 32.2 | 40.2 | 0.00 | 0.00 | 0.00 | 91 | 1011.8 |
| 20260905232032 | 30 | 96 | 9.7 | 0.0 | 0.00 | 0.00 | 0.00 | 55 | 1009.0 |
| 20260905231933 | 30 | 93 | 9.7 | 0.0 | 0.00 | 0.00 | 0.00 | 55 | 1009.0 |
| 20260905231854 | 30 | 93 | 9.7 | 0.0 | 0.00 | 0.00 | 0.00 | 54 | 1009.0 |
| 20260905231728 | 30 | 134 | 9.7 | 0.0 | 0.00 | 0.00 | 0.00 | 55 | 1009.0 |
| 20260905231641 | 30 | 116 | 8.0 | 0.0 | 0.00 | 0.00 | 0.00 | 55 | 1009.0 |
| 20260905231526 | 30 | 106 | 8.0 | 0.0 | 0.00 | 0.00 | 0.00 | 55 | 1009.0 |
| 20260905231426 | 30 | 117 | 8.0 | 0.0 | 0.00 | 0.00 | 0.00 | 55 | 1009.0 |
| 20260905231327 | 30 | 116 | 8.0 | 0.0 | 0.00 | 0.00 | 0.00 | 55 | 1009.0 |
| 20260905231228 | 30 | 121 | 8.0 | 0.0 | 0.00 | 0.00 | 0.00 | 55 | 1009.9 |
| 20260905231149 | 30 | 123 | 8.0 | 0.0 | 0.00 | 0.00 | 0.00 | 54 | 1009.9 |
| 20260905231033 | 30 | 127 | 8.0 | 0.0 | 0.00 | 0.00 | 0.00 | 54 | 1009.9 |
| 20260905230935 | 30 | 126 | 9.7 | 17.7 | 0.00 | 0.00 | 0.00 | 53 | 1009.9 |
| 20260905230834 | 31 | 131 | 6.4 | 17.7 | 0.00 | 0.00 | 0.00 | 52 | 1009.9 |
| 20260905230752 | 31 | 131 | 8.0 | 17.7 | 0.00 | 0.00 | 0.00 | 53 | 1009.9 |
| 20260905230630 | 31 | 131 | 6.4 | 17.7 | 0.00 | 0.00 | 0.00 | 53 | 1009.9 |
| 20260905230532 | 31 | 126 | 11.3 | 17.7 | 0.00 | 0.00 | 0.00 | 53 | 1009.9 |
| 20260905230431 | 31 | 127 | 8.0 | 22.5 | 0.00 | 0.00 | 0.00 | 53 | 1009.9 |
| 20260905230350 | 31 | 131 | 9.7 | 22.5 | 0.00 | 0.00 | 0.00 | 53 | 1009.9 |
| 20260905230243 | 31 | 130 | 9.7 | 22.5 | 0.00 | 0.00 | 0.00 | 52 | 1009.9 |
| 20260905230154 | 31 | 119 | 11.3 | 22.5 | 0.00 | 0.00 | 0.00 | 52 | 1009.9 |
| 20260905230031 | 31 | 110 | 12.9 | 22.5 | 0.00 | 0.00 | 0.00 | 51 | 1009.9 |
| 20260905225929 | 31 | 114 | 12.9 | 22.5 | 0.00 | 0.00 | 0.00 | 52 | 1009.9 |
| 20260905225849 | 31 | 116 | 11.3 | 22.5 | 0.00 | 0.00 | 0.00 | 52 | 1009.9 |
| 20260905225728 | 31 | 113 | 11.3 | 22.5 | 0.00 | 0.00 | 0.00 | 51 | 1009.7 |
| 20260905225628 | 31 | 112 | 16.1 | 22.5 | 0.00 | 0.00 | 0.00 | 51 | 1009.7 |
| 20260905225527 | 31 | 114 | 12.9 | 20.9 | 0.00 | 0.00 | 0.00 | 51 | 1009.7 |
| 20260905225428 | 32 | 82 | 11.3 | 17.7 | 0.00 | 0.00 | 0.00 | 51 | 1009.7 |
| 20260905225328 | 32 | 88 | 11.3 | 17.7 | 0.00 | 0.00 | 0.00 | 53 | 1009.7 |
| 20260905225227 | 32 | 104 | 11.3 | 16.1 | 0.00 | 0.00 | 0.00 | 52 | 1009.7 |
| 20260905225125 | 32 | 113 | 8.0 | 16.1 | 0.00 | 0.00 | 0.00 | 52 | 1009.7 |
| 20260905225024 | 32 | 109 | 3.2 | 16.1 | 0.00 | 0.00 | 0.00 | 51 | 1009.7 |
| 20260905224943 | 32 | 150 | 4.8 | 16.1 | 0.00 | 0.00 | 0.00 | 51 | 1009.7 |
| 20260905224825 | 32 | 148 | 6.4 | 16.1 | 0.00 | 0.00 | 0.00 | 51 | 1009.7 |
| 20260905224745 | 32 | 145 | 9.7 | 16.1 | 0.00 | 0.00 | 0.00 | 50 | 1009.7 |
| 20260905224655 | 32 | 112 | 11.3 | 16.1 | 0.00 | 0.00 | 0.00 | 52 | 1009.7 |
| 20260905224532 | 32 | 145 | 8.0 | 14.5 | 0.00 | 0.00 | 0.00 | 51 | 1009.7 |
| 20260905224430 | 32 | 112 | 9.7 | 12.9 | 0.00 | 0.00 | 0.00 | 54 | 1009.7 |
| 20260905224330 | 32 | 32 | 4.8 | 8.0 | 0.00 | 0.00 | 0.00 | 53 | 1009.7 |
| 20260905224229 | 32 | 30 | 1.6 | 4.8 | 0.00 | 0.00 | 0.00 | 52 | 1009.9 |
| 20260905224149 | 32 | 24 | 1.6 | 4.8 | 0.00 | 0.00 | 0.00 | 50 | 1009.9 |
| 20260905224030 | 32 | 30 | 3.2 | 4.8 | 0.00 | 0.00 | 0.00 | 52 | 1009.9 |
| 20260905223931 | 32 | 30 | 1.6 | 8.0 | 0.00 | 0.00 | 0.00 | 51 | 1009.9 |
| 20260905223829 | 32 | 30 | 1.6 | 8.0 | 0.00 | 0.00 | 0.00 | 50 | 1009.9 |
| 20260905223747 | 32 | 30 | 1.6 | 8.0 | 0.00 | 0.00 | 0.00 | 50 | 1009.9 |
| 20260905223644 | 32 | 31 | 3.2 | 8.0 | 0.00 | 0.00 | 0.00 | 50 | 1009.9 |
| 20260905223543 | 32 | 31 | 1.6 | 8.0 | 0.00 | 0.00 | 0.00 | 50 | 1009.9 |
| 20260905223443 | 32 | 31 | 3.2 | 8.0 | 0.00 | 0.00 | 0.00 | 51 | 1009.9 |
| 20260905223342 | 32 | 31 | 3.2 | 8.0 | 0.00 | 0.00 | 0.00 | 50 | 1009.9 |
| 20260905223244 | 32 | 32 | 1.6 | 8.0 | 0.00 | 0.00 | 0.00 | 50 | 1009.9 |
| 20260905223215 | 32 | 32 | 1.6 | 8.0 | 0.00 | 0.00 | 0.00 | 50 | 1009.9 |
| 20260905223052 | 32 | 35 | 3.2 | 8.0 | 0.00 | 0.00 | 0.00 | 49 | 1009.9 |
| 20260905222928 | 32 | 322 | 1.6 | 4.8 | 0.00 | 0.00 | 0.00 | 48 | 1009.9 |
| 20260905222847 | 32 | 318 | 4.8 | 4.8 | 0.00 | 0.00 | 0.00 | 48 | 1009.9 |
| 20260905222743 | 32 | 319 | 4.8 | 4.8 | 0.00 | 0.00 | 0.00 | 48 | 1009.8 |
| 20260905222642 | 32 | 319 | 3.2 | 4.8 | 0.00 | 0.00 | 0.00 | 48 | 1009.8 |
| 20260905222541 | 32 | 320 | 3.2 | 4.8 | 0.00 | 0.00 | 0.00 | 48 | 1009.8 |
| 20260905222439 | 32 | 316 | 3.2 | 4.8 | 0.00 | 0.00 | 0.00 | 49 | 1009.8 |
| 20260905222342 | 32 | 318 | 3.2 | 4.8 | 0.00 | 0.00 | 0.00 | 49 | 1009.8 |
| 20260905222240 | 32 | 319 | 3.2 | 4.8 | 0.00 | 0.00 | 0.00 | 49 | 1009.8 |
| 20260905222139 | 32 | 319 | 1.6 | 4.8 | 0.00 | 0.00 | 0.00 | 49 | 1009.8 |
| 20260905222037 | 32 | 319 | 3.2 | 4.8 | 0.00 | 0.00 | 0.00 | 49 | 1009.8 |
| 20260905221937 | 32 | 316 | 3.2 | 4.8 | 0.00 | 0.00 | 0.00 | 49 | 1009.8 |
| 20260905221855 | 32 | 319 | 3.2 | 9.7 | 0.00 | 0.00 | 0.00 | 49 | 1009.8 |
| 20260905221733 | 32 | 316 | 1.6 | 9.7 | 0.00 | 0.00 | 0.00 | 49 | 1009.8 |
| 20260905221706 | 32 | 318 | 1.6 | 9.7 | 0.00 | 0.00 | 0.00 | 49 | 1009.8 |
| 20260905221605 | 32 | 319 | 0.0 | 9.7 | 0.00 | 0.00 | 0.00 | 48 | 1009.8 |
| 20260905221503 | 32 | 318 | 1.6 | 9.7 | 0.00 | 0.00 | 0.00 | 48 | 1009.8 |
| 20260905221341 | 32 | 318 | 1.6 | 9.7 | 0.00 | 0.00 | 0.00 | 48 | 1009.8 |
| 20260905221239 | 32 | 318 | 3.2 | 9.7 | 0.00 | 0.00 | 0.00 | 48 | 1009.9 |
| 20260905221158 | 32 | 318 | 1.6 | 9.7 | 0.00 | 0.00 | 0.00 | 48 | 1009.9 |
| 20260905221035 | 32 | 323 | 3.2 | 9.7 | 0.00 | 0.00 | 0.00 | 48 | 1009.9 |
| 20260905220953 | 32 | 323 | 8.0 | 11.3 | 0.00 | 0.00 | 0.00 | 47 | 1009.9 |
| 20260905220831 | 32 | 332 | 8.0 | 11.3 | 0.00 | 0.00 | 0.00 | 48 | 1009.9 |
| 20260905220733 | 32 | 332 | 6.4 | 12.9 | 0.00 | 0.00 | 0.00 | 48 | 1009.9 |
| 20260905220633 | 32 | 325 | 4.8 | 12.9 | 0.00 | 0.00 | 0.00 | 48 | 1009.9 |
| 20260905220532 | 32 | 318 | 6.4 | 12.9 | 0.00 | 0.00 | 0.00 | 49 | 1009.9 |
| 20260905220432 | 32 | 312 | 3.2 | 12.9 | 0.00 | 0.00 | 0.00 | 49 | 1009.9 |
| 20260905220331 | 32 | 312 | 0.0 | 12.9 | 0.00 | 0.00 | 0.00 | 48 | 1009.9 |
| 20260905220229 | 32 | 312 | 1.6 | 12.9 | 0.00 | 0.00 | 0.00 | 48 | 1009.9 |
| 20260905220200 | 32 | 312 | 6.4 | 12.9 | 0.00 | 0.00 | 0.00 | 48 | 1009.9 |
| 20260905220042 | 32 | 342 | 9.7 | 12.9 | 0.00 | 0.00 | 0.00 | 49 | 1009.9 |
| 20260905215939 | 32 | 328 | 8.0 | 12.9 | 0.00 | 0.00 | 0.00 | 49 | 1009.9 |
| 20260905215838 | 32 | 326 | 9.7 | 11.3 | 0.00 | 0.00 | 0.00 | 48 | 1009.9 |
| 20260905215738 | 32 | 340 | 8.0 | 11.3 | 0.00 | 0.00 | 0.00 | 49 | 1009.9 |
| 20260905215636 | 32 | 337 | 4.8 | 11.3 | 0.00 | 0.00 | 0.00 | 49 | 1009.9 |
| 20260905215534 | 32 | 339 | 4.8 | 11.3 | 0.00 | 0.00 | 0.00 | 48 | 1009.9 |
| 20260905215438 | 32 | 354 | 1.6 | 9.7 | 0.00 | 0.00 | 0.00 | 48 | 1009.9 |
| 20260905215338 | 32 | 353 | 3.2 | 9.7 | 0.00 | 0.00 | 0.00 | 48 | 1009.9 |
| 20260905215235 | 32 | 357 | 3.2 | 9.7 | 0.00 | 0.00 | 0.00 | 48 | 1009.9 |
| 20260905215133 | 32 | 357 | 4.8 | 9.7 | 0.00 | 0.00 | 0.00 | 48 | 1009.9 |
| 20260905215031 | 32 | 354 | 4.8 | 9.7 | 0.00 | 0.00 | 0.00 | 48 | 1009.9 |
| 20260905214929 | 32 | 356 | 6.4 | 9.7 | 0.00 | 0.00 | 0.00 | 48 | 1009.9 |
| 20260905214828 | 32 | 322 | 3.2 | 9.7 | 0.00 | 0.00 | 0.00 | 47 | 1009.9 |
| 20260905214730 | 32 | 326 | 3.2 | 9.7 | 0.00 | 0.00 | 0.00 | 47 | 1009.9 |
| 20260905214700 | 32 | 360 | 1.6 | 9.7 | 0.00 | 0.00 | 0.00 | 47 | 1009.9 |
| 20260905214558 | 32 | 359 | 3.2 | 9.7 | 0.00 | 0.00 | 0.00 | 47 | 1009.9 |
| 20260905214456 | 32 | 360 | 4.8 | 9.7 | 0.00 | 0.00 | 0.00 | 49 | 1009.9 |
| 20260905214333 | 32 | 16 | 4.8 | 9.7 | 0.00 | 0.00 | 0.00 | 48 | 1009.9 |
| 20260905214231 | 32 | 16 | 3.2 | 8.0 | 0.00 | 0.00 | 0.00 | 48 | 1010.0 |
| 20260905214130 | 32 | 16 | 4.8 | 8.0 | 0.00 | 0.00 | 0.00 | 47 | 1010.0 |
| 20260905214031 | 32 | 17 | 0.0 | 6.4 | 0.00 | 0.00 | 0.00 | 47 | 1010.0 |
| 20260905213933 | 32 | 14 | 0.0 | 9.7 | 0.00 | 0.00 | 0.00 | 47 | 1010.0 |
| 20260905213831 | 32 | 17 | 0.0 | 11.3 | 0.00 | 0.00 | 0.00 | 47 | 1010.0 |
| 20260905213730 | 32 | 17 | 0.0 | 11.3 | 0.00 | 0.00 | 0.00 | 48 | 1010.0 |
| 20260905213632 | 32 | 14 | 3.2 | 11.3 | 0.00 | 0.00 | 0.00 | 49 | 1010.0 |
| 20260905213551 | 32 | 14 | 1.6 | 11.3 | 0.00 | 0.00 | 0.00 | 47 | 1010.0 |
| 20260905213428 | 32 | 14 | 1.6 | 11.3 | 0.00 | 0.00 | 0.00 | 46 | 1010.0 |
| 20260905213327 | 32 | 16 | 3.2 | 11.3 | 0.00 | 0.00 | 0.00 | 46 | 1010.0 |
| 20260905213241 | 32 | 16 | 4.8 | 11.3 | 0.00 | 0.00 | 0.00 | 46 | 1010.0 |
| 20260905213153 | 32 | 16 | 8.0 | 11.3 | 0.00 | 0.00 | 0.00 | 46 | 1010.0 |
| 20260905213029 | 32 | 18 | 8.0 | 11.3 | 0.00 | 0.00 | 0.00 | 47 | 1010.0 |
| 20260905212928 | 32 | 16 | 4.8 | 11.3 | 0.00 | 0.00 | 0.00 | 47 | 1010.0 |
| 20260905212847 | 32 | 17 | 9.7 | 11.3 | 0.00 | 0.00 | 0.00 | 48 | 1010.0 |
| 20260905212725 | 32 | 20 | 4.8 | 11.3 | 0.00 | 0.00 | 0.00 | 48 | 1009.9 |
| 20260905212624 | 32 | 357 | 6.4 | 11.3 | 0.00 | 0.00 | 0.00 | 48 | 1009.9 |
| 20260905212542 | 32 | 10 | 3.2 | 11.3 | 0.00 | 0.00 | 0.00 | 48 | 1009.9 |
| 20260905212440 | 32 | 11 | 3.2 | 11.3 | 0.00 | 0.00 | 0.00 | 48 | 1009.9 |
| 20260905212341 | 32 | 328 | 3.2 | 11.3 | 0.00 | 0.00 | 0.00 | 49 | 1009.9 |
| 20260905212300 | 32 | 329 | 3.2 | 11.3 | 0.00 | 0.00 | 0.00 | 47 | 1009.9 |
| 20260905212139 | 32 | 330 | 0.0 | 11.3 | 0.00 | 0.00 | 0.00 | 47 | 1009.9 |
| 20260905212057 | 32 | 329 | 3.2 | 11.3 | 0.00 | 0.00 | 0.00 | 47 | 1009.9 |
| 20260905211935 | 32 | 330 | 4.8 | 11.3 | 0.00 | 0.00 | 0.00 | 47 | 1009.9 |
| 20260905211854 | 32 | 360 | 3.2 | 11.3 | 0.00 | 0.00 | 0.00 | 47 | 1009.9 |
| 20260905211753 | 32 | 3 | 8.0 | 11.3 | 0.00 | 0.00 | 0.00 | 46 | 1009.9 |
| 20260905211702 | 32 | 360 | 6.4 | 11.3 | 0.00 | 0.00 | 0.00 | 45 | 1009.9 |
| 20260905211540 | 32 | 25 | 3.2 | 4.8 | 0.00 | 0.00 | 0.00 | 46 | 1009.9 |
| 20260905211435 | 32 | 23 | 3.2 | 8.0 | 0.00 | 0.00 | 0.00 | 45 | 1009.9 |
| 20260905211336 | 32 | 25 | 3.2 | 9.7 | 0.00 | 0.00 | 0.00 | 47 | 1009.9 |
| 20260905211235 | 32 | 27 | 1.6 | 9.7 | 0.00 | 0.00 | 0.00 | 47 | 1009.9 |
| 20260905211134 | 32 | 27 | 1.6 | 9.7 | 0.00 | 0.00 | 0.00 | 48 | 1009.9 |
| 20260905211033 | 32 | 25 | 3.2 | 9.7 | 0.00 | 0.00 | 0.00 | 49 | 1009.9 |
| 20260905210931 | 32 | 25 | 3.2 | 9.7 | 0.00 | 0.00 | 0.00 | 46 | 1009.9 |
| 20260905210830 | 32 | 25 | 3.2 | 9.7 | 0.00 | 0.00 | 0.00 | 45 | 1009.9 |
| 20260905210728 | 32 | 24 | 3.2 | 9.7 | 0.00 | 0.00 | 0.00 | 44 | 1009.9 |
| 20260905210631 | 32 | 25 | 4.8 | 9.7 | 0.00 | 0.00 | 0.00 | 46 | 1009.9 |
| 20260905210529 | 32 | 24 | 6.4 | 9.7 | 0.00 | 0.00 | 0.00 | 47 | 1009.9 |
| 20260905210427 | 32 | 27 | 4.8 | 11.3 | 0.00 | 0.00 | 0.00 | 47 | 1009.9 |
| 20260905210326 | 32 | 27 | 4.8 | 11.3 | 0.00 | 0.00 | 0.00 | 47 | 1009.9 |
| 20260905210256 | 32 | 27 | 3.2 | 11.3 | 0.00 | 0.00 | 0.00 | 47 | 1009.9 |
| 20260905210146 | 32 | 27 | 3.2 | 11.3 | 0.00 | 0.00 | 0.00 | 47 | 1009.9 |
| 20260905210044 | 32 | 27 | 3.2 | 11.3 | 0.00 | 0.00 | 0.00 | 47 | 1009.9 |
| 20260905210003 | 32 | 27 | 6.4 | 11.3 | 0.00 | 0.00 | 0.00 | 47 | 1009.9 |
| 20260905205844 | 32 | 25 | 8.0 | 11.3 | 0.00 | 0.00 | 0.00 | 47 | 1009.9 |
| 20260905205741 | 32 | 30 | 8.0 | 11.3 | 0.00 | 0.00 | 0.00 | 48 | 1010.2 |
| 20260905205640 | 32 | 20 | 6.4 | 11.3 | 0.00 | 0.00 | 0.00 | 48 | 1010.2 |
| 20260905205539 | 32 | 18 | 6.4 | 11.3 | 0.00 | 0.00 | 0.00 | 47 | 1010.2 |
| 20260905205458 | 32 | 332 | 3.2 | 9.7 | 0.00 | 0.00 | 0.00 | 47 | 1010.2 |
| 20260905205336 | 32 | 330 | 0.0 | 9.7 | 0.00 | 0.00 | 0.00 | 47 | 1010.2 |
| 20260905205235 | 32 | 330 | 1.6 | 9.7 | 0.00 | 0.00 | 0.00 | 48 | 1010.2 |
| 20260905205154 | 32 | 329 | 6.4 | 9.7 | 0.00 | 0.00 | 0.00 | 49 | 1010.2 |
| 20260905205034 | 32 | 329 | 3.2 | 8.0 | 0.00 | 0.00 | 0.00 | 48 | 1010.2 |
| 20260905204933 | 32 | 329 | 3.2 | 8.0 | 0.00 | 0.00 | 0.00 | 48 | 1010.2 |
| 20260905204852 | 32 | 329 | 3.2 | 8.0 | 0.00 | 0.00 | 0.00 | 48 | 1010.2 |
| 20260905204801 | 32 | 325 | 0.0 | 11.3 | 0.00 | 0.00 | 0.00 | 48 | 1010.2 |
| 20260905204651 | 32 | 328 | 0.0 | 11.3 | 0.00 | 0.00 | 0.00 | 48 | 1010.2 |
| 20260905204528 | 32 | 329 | 3.2 | 12.9 | 0.00 | 0.00 | 0.00 | 48 | 1010.2 |
| 20260905204428 | 32 | 328 | 3.2 | 12.9 | 0.00 | 0.00 | 0.00 | 47 | 1010.2 |
| 20260905204326 | 32 | 329 | 4.8 | 12.9 | 0.00 | 0.00 | 0.00 | 47 | 1010.2 |
| 20260905204229 | 32 | 356 | 4.8 | 12.9 | 0.00 | 0.00 | 0.00 | 48 | 1010.3 |
| 20260905204127 | 32 | 356 | 3.2 | 12.9 | 0.00 | 0.00 | 0.00 | 47 | 1010.3 |
| 20260905204029 | 32 | 359 | 4.8 | 12.9 | 0.00 | 0.00 | 0.00 | 47 | 1010.3 |
| 20260905203928 | 32 | 360 | 6.4 | 16.1 | 0.00 | 0.00 | 0.00 | 48 | 1010.3 |
| 20260905203827 | 32 | 357 | 4.8 | 16.1 | 0.00 | 0.00 | 0.00 | 48 | 1010.3 |
| 20260905203724 | 32 | 337 | 9.7 | 16.1 | 0.00 | 0.00 | 0.00 | 48 | 1010.3 |
| 20260905203642 | 32 | 335 | 9.7 | 16.1 | 0.00 | 0.00 | 0.00 | 49 | 1010.3 |
| 20260905203540 | 32 | 329 | 9.7 | 16.1 | 0.00 | 0.00 | 0.00 | 48 | 1010.3 |
| 20260905203502 | 32 | 352 | 9.7 | 16.1 | 0.00 | 0.00 | 0.00 | 49 | 1010.3 |
| 20260905203338 | 32 | 10 | 8.0 | 16.1 | 0.00 | 0.00 | 0.00 | 48 | 1010.3 |
| 20260905203237 | 32 | 350 | 9.7 | 16.1 | 0.00 | 0.00 | 0.00 | 49 | 1010.3 |
| 20260905203207 | 32 | 305 | 9.7 | 16.1 | 0.00 | 0.00 | 0.00 | 49 | 1010.3 |
| 20260905203025 | 32 | 292 | 0.0 | 9.7 | 0.00 | 0.00 | 0.00 | 49 | 1010.3 |
| 20260905202943 | 32 | 291 | 1.6 | 9.7 | 0.00 | 0.00 | 0.00 | 49 | 1010.3 |
| 20260905202841 | 32 | 291 | 4.8 | 11.3 | 0.00 | 0.00 | 0.00 | 49 | 1010.3 |
| 20260905202722 | 32 | 3 | 1.6 | 12.9 | 0.00 | 0.00 | 0.00 | 49 | 1010.5 |
| 20260905202624 | 32 | 4 | 6.4 | 16.1 | 0.00 | 0.00 | 0.00 | 48 | 1010.5 |
| 20260905202542 | 32 | 4 | 6.4 | 16.1 | 0.00 | 0.00 | 0.00 | 48 | 1010.5 |
| 20260905202439 | 32 | 13 | 6.4 | 16.1 | 0.00 | 0.00 | 0.00 | 48 | 1010.5 |
| 20260905202341 | 32 | 11 | 8.0 | 16.1 | 0.00 | 0.00 | 0.00 | 48 | 1010.5 |
| 20260905202239 | 32 | 14 | 8.0 | 16.1 | 0.00 | 0.00 | 0.00 | 47 | 1010.5 |
| 20260905202137 | 32 | 8 | 6.4 | 16.1 | 0.00 | 0.00 | 0.00 | 49 | 1010.5 |
| 20260905202034 | 32 | 6 | 8.0 | 16.1 | 0.00 | 0.00 | 0.00 | 48 | 1010.5 |
| 20260905201936 | 32 | 360 | 11.3 | 16.1 | 0.00 | 0.00 | 0.00 | 49 | 1010.5 |
| 20260905201834 | 32 | 339 | 9.7 | 16.1 | 0.00 | 0.00 | 0.00 | 50 | 1010.5 |
| 20260905201742 | 32 | 349 | 3.2 | 12.9 | 0.00 | 0.00 | 0.00 | 49 | 1010.5 |
| 20260905201650 | 32 | 352 | 3.2 | 12.9 | 0.00 | 0.00 | 0.00 | 50 | 1010.5 |
| 20260905201548 | 32 | 316 | 6.4 | 12.9 | 0.00 | 0.00 | 0.00 | 50 | 1010.5 |
| 20260905201447 | 32 | 346 | 6.4 | 12.9 | 0.00 | 0.00 | 0.00 | 50 | 1010.5 |
| 20260905201404 | 32 | 333 | 4.8 | 12.9 | 0.00 | 0.00 | 0.00 | 49 | 1010.5 |
| 20260905201242 | 32 | 1 | 1.6 | 8.0 | 0.00 | 0.00 | 0.00 | 49 | 1010.8 |
| 20260905201124 | 32 | 1 | 3.2 | 8.0 | 0.00 | 0.00 | 0.00 | 49 | 1010.8 |
| 20260905201041 | 32 | 330 | 0.0 | 8.0 | 0.00 | 0.00 | 0.00 | 49 | 1010.8 |
| 20260905200940 | 32 | 329 | 0.0 | 8.0 | 0.00 | 0.00 | 0.00 | 49 | 1010.8 |
| 20260905200840 | 32 | 330 | 0.0 | 11.3 | 0.00 | 0.00 | 0.00 | 48 | 1010.8 |
| 20260905200738 | 32 | 328 | 3.2 | 14.5 | 0.00 | 0.00 | 0.00 | 49 | 1010.8 |
| 20260905200637 | 32 | 330 | 3.2 | 14.5 | 0.00 | 0.00 | 0.00 | 48 | 1010.8 |
| 20260905200535 | 32 | 329 | 0.0 | 14.5 | 0.00 | 0.00 | 0.00 | 48 | 1010.8 |
| 20260905200437 | 32 | 329 | 1.6 | 14.5 | 0.00 | 0.00 | 0.00 | 47 | 1010.8 |
| 20260905200338 | 32 | 328 | 3.2 | 14.5 | 0.00 | 0.00 | 0.00 | 49 | 1010.8 |
| 20260905200257 | 32 | 328 | 3.2 | 19.3 | 0.00 | 0.00 | 0.00 | 48 | 1010.8 |
| 20260905200228 | 32 | 328 | 4.8 | 19.3 | 0.00 | 0.00 | 0.00 | 47 | 1010.8 |
| 20260905200042 | 32 | 330 | 8.0 | 19.3 | 0.00 | 0.00 | 0.00 | 47 | 1010.8 |
| 20260905195941 | 32 | 330 | 11.3 | 19.3 | 0.00 | 0.00 | 0.00 | 48 | 1010.8 |
| 20260905195840 | 32 | 329 | 6.4 | 19.3 | 0.00 | 0.00 | 0.00 | 49 | 1010.8 |
| 20260905195739 | 32 | 325 | 4.8 | 19.3 | 0.00 | 0.00 | 0.00 | 49 | 1010.9 |
| 20260905195658 | 32 | 325 | 6.4 | 19.3 | 0.00 | 0.00 | 0.00 | 48 | 1010.9 |
| 20260905195603 | 32 | 313 | 8.0 | 19.3 | 0.00 | 0.00 | 0.00 | 48 | 1010.9 |
| 20260905195500 | 32 | 337 | 12.9 | 19.3 | 0.00 | 0.00 | 0.00 | 48 | 1010.9 |
| 20260905195400 | 32 | 329 | 12.9 | 19.3 | 0.00 | 0.00 | 0.00 | 50 | 1010.9 |
| 20260905195237 | 32 | 340 | 11.3 | 16.1 | 0.00 | 0.00 | 0.00 | 50 | 1010.9 |
| 20260905195135 | 32 | 312 | 6.4 | 16.1 | 0.00 | 0.00 | 0.00 | 49 | 1010.9 |
| 20260905195034 | 32 | 25 | 6.4 | 12.9 | 0.00 | 0.00 | 0.00 | 49 | 1010.9 |
| 20260905194953 | 32 | 360 | 1.6 | 11.3 | 0.00 | 0.00 | 0.00 | 48 | 1010.9 |
| 20260905194830 | 32 | 360 | 3.2 | 11.3 | 0.00 | 0.00 | 0.00 | 48 | 1010.9 |
| 20260905194728 | 32 | 360 | 4.8 | 11.3 | 0.00 | 0.00 | 0.00 | 50 | 1010.9 |
| 20260905194702 | 32 | 360 | 4.8 | 11.3 | 0.00 | 0.00 | 0.00 | 49 | 1010.9 |
| 20260905194540 | 32 | 326 | 4.8 | 11.3 | 0.00 | 0.00 | 0.00 | 48 | 1010.9 |
| 20260905194439 | 32 | 13 | 4.8 | 11.3 | 0.00 | 0.00 | 0.00 | 49 | 1010.9 |
| 20260905194337 | 32 | 4 | 4.8 | 11.3 | 0.00 | 0.00 | 0.00 | 49 | 1010.9 |
| 20260905194236 | 32 | 325 | 6.4 | 11.3 | 0.00 | 0.00 | 0.00 | 49 | 1011.0 |
| 20260905194134 | 32 | 360 | 6.4 | 9.7 | 0.00 | 0.00 | 0.00 | 49 | 1011.0 |
| 20260905194034 | 32 | 8 | 1.6 | 4.8 | 0.00 | 0.00 | 0.00 | 48 | 1011.0 |
| 20260905193937 | 32 | 8 | 1.6 | 4.8 | 0.00 | 0.00 | 0.00 | 49 | 1011.0 |
| 20260905193837 | 32 | 10 | 0.0 | 9.7 | 0.00 | 0.00 | 0.00 | 48 | 1011.0 |
| 20260905193735 | 32 | 14 | 0.0 | 11.3 | 0.00 | 0.00 | 0.00 | 47 | 1011.0 |
| 20260905193633 | 32 | 14 | 1.6 | 11.3 | 0.00 | 0.00 | 0.00 | 47 | 1011.0 |
| 20260905193532 | 32 | 13 | 0.0 | 11.3 | 0.00 | 0.00 | 0.00 | 47 | 1011.0 |
| 20260905193430 | 32 | 14 | 1.6 | 11.3 | 0.00 | 0.00 | 0.00 | 48 | 1011.0 |
| 20260905193333 | 32 | 11 | 1.6 | 11.3 | 0.00 | 0.00 | 0.00 | 47 | 1011.0 |
| 20260905193252 | 32 | 13 | 3.2 | 11.3 | 0.00 | 0.00 | 0.00 | 47 | 1011.0 |
| 20260905193224 | 32 | 16 | 1.6 | 11.3 | 0.00 | 0.00 | 0.00 | 49 | 1011.0 |
| 20260905193101 | 32 | 16 | 3.2 | 11.3 | 0.00 | 0.00 | 0.00 | 49 | 1011.0 |
| 20260905192938 | 32 | 17 | 4.8 | 11.3 | 0.00 | 0.00 | 0.00 | 50 | 1011.0 |
| 20260905192838 | 32 | 24 | 9.7 | 11.3 | 0.00 | 0.00 | 0.00 | 49 | 1011.0 |
| 20260905192758 | 32 | 359 | 9.7 | 11.3 | 0.00 | 0.00 | 0.00 | 48 | 1011.2 |
| 20260905192654 | 32 | 347 | 8.0 | 11.3 | 0.00 | 0.00 | 0.00 | 49 | 1011.2 |
| 20260905192532 | 32 | 319 | 3.2 | 12.9 | 0.00 | 0.00 | 0.00 | 48 | 1011.2 |
| 20260905192435 | 32 | 320 | 6.4 | 12.9 | 0.00 | 0.00 | 0.00 | 48 | 1011.2 |
| 20260905192334 | 32 | 333 | 8.0 | 12.9 | 0.00 | 0.00 | 0.00 | 48 | 1011.2 |
| 20260905192233 | 32 | 328 | 4.8 | 12.9 | 0.00 | 0.00 | 0.00 | 48 | 1011.2 |
| 20260905192151 | 32 | 322 | 1.6 | 12.9 | 0.00 | 0.00 | 0.00 | 49 | 1011.2 |
| 20260905192048 | 32 | 322 | 3.2 | 12.9 | 0.00 | 0.00 | 0.00 | 50 | 1011.2 |
| 20260905191926 | 32 | 320 | 8.0 | 12.9 | 0.00 | 0.00 | 0.00 | 48 | 1011.2 |
| 20260905191824 | 32 | 315 | 6.4 | 12.9 | 0.00 | 0.00 | 0.00 | 48 | 1011.2 |
| 20260905191735 | 32 | 336 | 11.3 | 12.9 | 0.00 | 0.00 | 0.00 | 48 | 1011.2 |
| 20260905191647 | 32 | 340 | 4.8 | 12.9 | 0.00 | 0.00 | 0.00 | 50 | 1011.2 |
| 20260905191525 | 32 | 346 | 8.0 | 12.9 | 0.00 | 0.00 | 0.00 | 49 | 1011.2 |
| 20260905191425 | 32 | 27 | 4.8 | 12.9 | 0.00 | 0.00 | 0.00 | 50 | 1011.2 |
| 20260905191343 | 32 | 30 | 4.8 | 12.9 | 0.00 | 0.00 | 0.00 | 50 | 1011.2 |
| 20260905191240 | 32 | 315 | 1.6 | 12.9 | 0.00 | 0.00 | 0.00 | 50 | 1011.5 |
| 20260905191139 | 32 | 318 | 4.8 | 12.9 | 0.00 | 0.00 | 0.00 | 50 | 1011.5 |
| 20260905191037 | 32 | 322 | 4.8 | 12.9 | 0.00 | 0.00 | 0.00 | 49 | 1011.5 |
| 20260905190956 | 32 | 322 | 9.7 | 12.9 | 0.00 | 0.00 | 0.00 | 49 | 1011.5 |
| 20260905190837 | 32 | 347 | 11.3 | 12.9 | 0.00 | 0.00 | 0.00 | 50 | 1011.5 |
| 20260905190737 | 32 | 336 | 11.3 | 12.9 | 0.00 | 0.00 | 0.00 | 53 | 1011.5 |
| 20260905190635 | 32 | 3 | 8.0 | 11.3 | 0.00 | 0.00 | 0.00 | 52 | 1011.5 |
| 20260905190533 | 32 | 16 | 6.4 | 11.3 | 0.00 | 0.00 | 0.00 | 51 | 1011.5 |
| 20260905190432 | 32 | 359 | 4.8 | 9.7 | 0.00 | 0.00 | 0.00 | 51 | 1011.5 |
| 20260905190349 | 32 | 359 | 0.0 | 9.7 | 0.00 | 0.00 | 0.00 | 51 | 1011.5 |
| 20260905190258 | 32 | 359 | 3.2 | 12.9 | 0.00 | 0.00 | 0.00 | 51 | 1011.5 |
| 20260905190148 | 32 | 359 | 0.0 | 12.9 | 0.00 | 0.00 | 0.00 | 51 | 1011.5 |
| 20260905190025 | 32 | 357 | 0.0 | 12.9 | 0.00 | 0.00 | 0.00 | 50 | 1011.5 |
| 20260905185947 | 32 | 357 | 3.2 | 12.9 | 0.00 | 0.00 | 0.00 | 49 | 1011.5 |
| 20260905185843 | 32 | 357 | 4.8 | 12.9 | 0.00 | 0.00 | 0.00 | 51 | 1011.5 |
| 20260905185802 | 32 | 359 | 3.2 | 12.9 | 0.00 | 0.00 | 0.00 | 50 | 1011.5 |
| 20260905185639 | 32 | 347 | 1.6 | 12.9 | 0.00 | 0.00 | 0.00 | 51 | 1011.5 |
| 20260905185537 | 32 | 347 | 3.2 | 12.9 | 0.00 | 0.00 | 0.00 | 51 | 1011.5 |
| 20260905185456 | 32 | 347 | 8.0 | 12.9 | 0.00 | 0.00 | 0.00 | 51 | 1011.5 |
| 20260905185333 | 32 | 356 | 8.0 | 12.9 | 0.00 | 0.00 | 0.00 | 50 | 1011.5 |
| 20260905185232 | 32 | 13 | 3.2 | 12.9 | 0.00 | 0.00 | 0.00 | 50 | 1011.5 |
| 20260905185134 | 32 | 11 | 3.2 | 12.9 | 0.00 | 0.00 | 0.00 | 49 | 1011.5 |
| 20260905185032 | 32 | 13 | 4.8 | 12.9 | 0.00 | 0.00 | 0.00 | 49 | 1011.5 |
| 20260905184930 | 32 | 14 | 8.0 | 12.9 | 0.00 | 0.00 | 0.00 | 51 | 1011.5 |
| 20260905184829 | 32 | 360 | 3.2 | 12.9 | 0.00 | 0.00 | 0.00 | 51 | 1011.5 |
| 20260905184748 | 32 | 346 | 3.2 | 12.9 | 0.00 | 0.00 | 0.00 | 50 | 1011.5 |
| 20260905184656 | 32 | 344 | 3.2 | 12.9 | 0.00 | 0.00 | 0.00 | 50 | 1011.5 |
| 20260905184534 | 32 | 344 | 3.2 | 12.9 | 0.00 | 0.00 | 0.00 | 50 | 1011.5 |
| 20260905184432 | 32 | 343 | 8.0 | 12.9 | 0.00 | 0.00 | 0.00 | 49 | 1011.5 |
| 20260905184336 | 32 | 329 | 6.4 | 12.9 | 0.00 | 0.00 | 0.00 | 51 | 1011.5 |
| 20260905184234 | 32 | 350 | 1.6 | 8.0 | 0.00 | 0.00 | 0.00 | 51 | 1011.7 |
| 20260905184133 | 32 | 350 | 1.6 | 8.0 | 0.00 | 0.00 | 0.00 | 50 | 1011.7 |
| 20260905184031 | 32 | 352 | 0.0 | 9.7 | 0.00 | 0.00 | 0.00 | 51 | 1011.7 |
| 20260905183929 | 32 | 352 | 0.0 | 9.7 | 0.00 | 0.00 | 0.00 | 51 | 1011.7 |
| 20260905183848 | 32 | 352 | 3.2 | 9.7 | 0.00 | 0.00 | 0.00 | 51 | 1011.7 |
| 20260905183746 | 32 | 350 | 0.0 | 12.9 | 0.00 | 0.00 | 0.00 | 50 | 1011.7 |
| 20260905183628 | 32 | 350 | 1.6 | 12.9 | 0.00 | 0.00 | 0.00 | 49 | 1011.7 |
| 20260905183525 | 32 | 354 | 3.2 | 12.9 | 0.00 | 0.00 | 0.00 | 50 | 1011.7 |
| 20260905183424 | 32 | 354 | 4.8 | 12.9 | 0.00 | 0.00 | 0.00 | 50 | 1011.7 |
| 20260905183343 | 32 | 354 | 3.2 | 17.7 | 0.00 | 0.00 | 0.00 | 50 | 1011.7 |
| 20260905183242 | 32 | 352 | 4.8 | 17.7 | 0.00 | 0.00 | 0.00 | 49 | 1011.7 |
| 20260905183213 | 32 | 352 | 6.4 | 17.7 | 0.00 | 0.00 | 0.00 | 50 | 1011.7 |
| 20260905183028 | 32 | 337 | 6.4 | 17.7 | 0.00 | 0.00 | 0.00 | 51 | 1011.7 |
| 20260905182947 | 32 | 343 | 9.7 | 17.7 | 0.00 | 0.00 | 0.00 | 50 | 1011.7 |
| 20260905182827 | 32 | 356 | 6.4 | 17.7 | 0.00 | 0.00 | 0.00 | 49 | 1011.7 |
| 20260905182727 | 32 | 28 | 0.0 | 17.7 | 0.00 | 0.00 | 0.00 | 49 | 1012.0 |
| 20260905182647 | 32 | 31 | 3.2 | 17.7 | 0.00 | 0.00 | 0.00 | 49 | 1012.0 |
| 20260905182543 | 32 | 30 | 9.7 | 17.7 | 0.00 | 0.00 | 0.00 | 49 | 1012.0 |
| 20260905182442 | 32 | 30 | 11.3 | 17.7 | 0.00 | 0.00 | 0.00 | 48 | 1012.0 |
| 20260905182341 | 32 | 325 | 9.7 | 14.5 | 0.00 | 0.00 | 0.00 | 52 | 1012.0 |
| 20260905182238 | 32 | 328 | 4.8 | 11.3 | 0.00 | 0.00 | 0.00 | 52 | 1012.0 |
| 20260905182137 | 32 | 353 | 4.8 | 11.3 | 0.00 | 0.00 | 0.00 | 52 | 1012.0 |
| 20260905182040 | 32 | 350 | 4.8 | 11.3 | 0.00 | 0.00 | 0.00 | 52 | 1012.0 |
| 20260905181939 | 32 | 349 | 1.6 | 11.3 | 0.00 | 0.00 | 0.00 | 52 | 1012.0 |
| 20260905181856 | 32 | 353 | 4.8 | 11.3 | 0.00 | 0.00 | 0.00 | 52 | 1012.0 |
| 20260905181815 | 32 | 1 | 6.4 | 11.3 | 0.00 | 0.00 | 0.00 | 51 | 1012.0 |
| 20260905181723 | 32 | 16 | 3.2 | 11.3 | 0.00 | 0.00 | 0.00 | 52 | 1012.0 |
| 20260905181540 | 32 | 322 | 0.0 | 9.7 | 0.00 | 0.00 | 0.00 | 52 | 1012.0 |
| 20260905181501 | 32 | 320 | 3.2 | 9.7 | 0.00 | 0.00 | 0.00 | 53 | 1012.0 |
| 20260905181338 | 32 | 322 | 3.2 | 9.7 | 0.00 | 0.00 | 0.00 | 53 | 1012.0 |
| 20260905181240 | 32 | 319 | 3.2 | 11.3 | 0.00 | 0.00 | 0.00 | 53 | 1012.0 |
| 20260905181159 | 32 | 320 | 3.2 | 11.3 | 0.00 | 0.00 | 0.00 | 53 | 1012.0 |
| 20260905181035 | 32 | 318 | 1.6 | 11.3 | 0.00 | 0.00 | 0.00 | 53 | 1012.0 |
| 20260905180933 | 32 | 319 | 1.6 | 12.9 | 0.00 | 0.00 | 0.00 | 52 | 1012.0 |
| 20260905180831 | 32 | 319 | 6.4 | 12.9 | 0.00 | 0.00 | 0.00 | 52 | 1012.0 |
| 20260905180749 | 32 | 356 | 6.4 | 12.9 | 0.00 | 0.00 | 0.00 | 53 | 1012.0 |
| 20260905180627 | 32 | 357 | 0.0 | 12.9 | 0.00 | 0.00 | 0.00 | 53 | 1012.0 |
| 20260905180526 | 32 | 359 | 1.6 | 12.9 | 0.00 | 0.00 | 0.00 | 52 | 1012.0 |
| 20260905180429 | 32 | 359 | 6.4 | 12.9 | 0.00 | 0.00 | 0.00 | 51 | 1012.0 |
| 20260905180327 | 32 | 17 | 4.8 | 12.9 | 0.00 | 0.00 | 0.00 | 51 | 1012.0 |
| 20260905180245 | 32 | 17 | 8.0 | 12.9 | 0.00 | 0.00 | 0.00 | 52 | 1012.0 |
| 20260905180155 | 32 | 16 | 9.7 | 12.9 | 0.00 | 0.00 | 0.00 | 52 | 1012.0 |
| 20260905180032 | 32 | 295 | 8.0 | 11.3 | 0.00 | 0.00 | 0.00 | 52 | 1012.0 |
| 20260905175932 | 32 | 356 | 6.4 | 11.3 | 0.00 | 0.00 | 0.00 | 54 | 1012.0 |
| 20260905175851 | 32 | 343 | 8.0 | 11.3 | 0.00 | 0.00 | 0.00 | 55 | 1012.0 |
| 20260905175731 | 32 | 359 | 6.4 | 11.3 | 0.00 | 0.00 | 0.00 | 55 | 1012.1 |
| 20260905175632 | 32 | 360 | 6.4 | 11.3 | 0.00 | 0.00 | 0.00 | 54 | 1012.1 |
| 20260905175531 | 32 | 32 | 3.2 | 8.0 | 0.00 | 0.00 | 0.00 | 54 | 1012.1 |
| 20260905175429 | 32 | 34 | 3.2 | 9.7 | 0.00 | 0.00 | 0.00 | 54 | 1012.1 |
| 20260905175327 | 32 | 32 | 1.6 | 9.7 | 0.00 | 0.00 | 0.00 | 55 | 1012.1 |
| 20260905175246 | 32 | 31 | 0.0 | 9.7 | 0.00 | 0.00 | 0.00 | 55 | 1012.1 |
| 20260905175204 | 32 | 32 | 0.0 | 11.3 | 0.00 | 0.00 | 0.00 | 55 | 1012.1 |
| 20260905175040 | 32 | 34 | 1.6 | 12.9 | 0.00 | 0.00 | 0.00 | 54 | 1012.1 |
| 20260905174940 | 32 | 31 | 3.2 | 12.9 | 0.00 | 0.00 | 0.00 | 54 | 1012.1 |
| 20260905174903 | 32 | 34 | 3.2 | 12.9 | 0.00 | 0.00 | 0.00 | 55 | 1012.1 |
| 20260905174740 | 32 | 32 | 3.2 | 12.9 | 0.00 | 0.00 | 0.00 | 55 | 1012.1 |
| 20260905174711 | 32 | 38 | 3.2 | 12.9 | 0.00 | 0.00 | 0.00 | 55 | 1012.1 |
| 20260905174528 | 32 | 37 | 6.4 | 12.9 | 0.00 | 0.00 | 0.00 | 56 | 1012.1 |
| 20260905174427 | 32 | 40 | 4.8 | 12.9 | 0.00 | 0.00 | 0.00 | 55 | 1012.1 |
| 20260905174326 | 32 | 42 | 8.0 | 12.9 | 0.00 | 0.00 | 0.00 | 55 | 1012.1 |
| 20260905174243 | 32 | 44 | 9.7 | 12.9 | 0.00 | 0.00 | 0.00 | 55 | 1012.4 |
| 20260905174126 | 32 | 38 | 9.7 | 12.9 | 0.00 | 0.00 | 0.00 | 54 | 1012.4 |
| 20260905174025 | 32 | 309 | 1.6 | 9.7 | 0.00 | 0.00 | 0.00 | 56 | 1012.4 |
| 20260905173943 | 32 | 291 | 0.0 | 9.7 | 0.00 | 0.00 | 0.00 | 56 | 1012.4 |
| 20260905173841 | 32 | 291 | 1.6 | 9.7 | 0.00 | 0.00 | 0.00 | 56 | 1012.4 |
| 20260905173759 | 32 | 291 | 3.2 | 9.7 | 0.00 | 0.00 | 0.00 | 55 | 1012.4 |
| 20260905173638 | 32 | 294 | 1.6 | 9.7 | 0.00 | 0.00 | 0.00 | 56 | 1012.4 |
| 20260905173556 | 32 | 295 | 1.6 | 9.7 | 0.00 | 0.00 | 0.00 | 56 | 1012.4 |
| 20260905173432 | 32 | 287 | 1.6 | 9.7 | 0.00 | 0.00 | 0.00 | 56 | 1012.4 |
| 20260905173330 | 31 | 288 | 6.4 | 9.7 | 0.00 | 0.00 | 0.00 | 55 | 1012.4 |
| 20260905173232 | 31 | 315 | 4.8 | 11.3 | 0.00 | 0.00 | 0.00 | 56 | 1012.4 |
| 20260905173203 | 31 | 316 | 3.2 | 11.3 | 0.00 | 0.00 | 0.00 | 56 | 1012.4 |
| 20260905173039 | 31 | 316 | 3.2 | 11.3 | 0.00 | 0.00 | 0.00 | 56 | 1012.4 |
| 20260905172938 | 31 | 319 | 3.2 | 11.3 | 0.00 | 0.00 | 0.00 | 56 | 1012.4 |
| 20260905172837 | 31 | 318 | 1.6 | 11.3 | 0.00 | 0.00 | 0.00 | 56 | 1012.4 |
| 20260905172739 | 31 | 320 | 3.2 | 11.3 | 0.00 | 0.00 | 0.00 | 55 | 1012.6 |
| 20260905172657 | 31 | 323 | 3.2 | 16.1 | 0.00 | 0.00 | 0.00 | 54 | 1012.6 |
| 20260905172535 | 31 | 322 | 3.2 | 16.1 | 0.00 | 0.00 | 0.00 | 56 | 1012.6 |
| 20260905172459 | 31 | 322 | 3.2 | 16.1 | 0.00 | 0.00 | 0.00 | 55 | 1012.6 |
| 20260905172336 | 31 | 319 | 8.0 | 16.1 | 0.00 | 0.00 | 0.00 | 55 | 1012.6 |
| 20260905172235 | 31 | 329 | 1.6 | 16.1 | 0.00 | 0.00 | 0.00 | 56 | 1012.6 |
| 20260905172134 | 31 | 329 | 0.0 | 16.1 | 0.00 | 0.00 | 0.00 | 56 | 1012.6 |
| 20260905172031 | 31 | 329 | 3.2 | 16.1 | 0.00 | 0.00 | 0.00 | 56 | 1012.6 |
| 20260905171928 | 31 | 328 | 4.8 | 16.1 | 0.00 | 0.00 | 0.00 | 56 | 1012.6 |
| 20260905171847 | 31 | 325 | 11.3 | 16.1 | 0.00 | 0.00 | 0.00 | 55 | 1012.6 |
| 20260905171736 | 31 | 294 | 6.4 | 11.3 | 0.00 | 0.00 | 0.00 | 56 | 1012.6 |
| 20260905171647 | 31 | 302 | 1.6 | 11.3 | 0.00 | 0.00 | 0.00 | 56 | 1012.6 |
| 20260905171545 | 31 | 344 | 1.6 | 11.3 | 0.00 | 0.00 | 0.00 | 55 | 1012.6 |
| 20260905171442 | 31 | 342 | 3.2 | 11.3 | 0.00 | 0.00 | 0.00 | 55 | 1012.6 |
| 20260905171341 | 31 | 343 | 1.6 | 11.3 | 0.00 | 0.00 | 0.00 | 55 | 1012.6 |
| 20260905171239 | 31 | 343 | 4.8 | 11.3 | 0.00 | 0.00 | 0.00 | 56 | 1012.6 |
| 20260905171138 | 31 | 344 | 8.0 | 11.3 | 0.00 | 0.00 | 0.00 | 57 | 1012.6 |
| 20260905171057 | 31 | 359 | 8.0 | 11.3 | 0.00 | 0.00 | 0.00 | 57 | 1012.6 |
| 20260905170934 | 31 | 340 | 3.2 | 11.3 | 0.00 | 0.00 | 0.00 | 56 | 1012.6 |
| 20260905170852 | 31 | 340 | 3.2 | 11.3 | 0.00 | 0.00 | 0.00 | 56 | 1012.6 |
| 20260905170734 | 31 | 330 | 0.0 | 11.3 | 0.00 | 0.00 | 0.00 | 56 | 1012.6 |
| 20260905170633 | 31 | 330 | 4.8 | 11.3 | 0.00 | 0.00 | 0.00 | 56 | 1012.6 |
| 20260905170531 | 31 | 330 | 6.4 | 11.3 | 0.00 | 0.00 | 0.00 | 57 | 1012.6 |
| 20260905170449 | 31 | 330 | 3.2 | 11.3 | 0.00 | 0.00 | 0.00 | 57 | 1012.6 |
| 20260905170326 | 31 | 325 | 1.6 | 11.3 | 0.00 | 0.00 | 0.00 | 57 | 1012.6 |
| 20260905170237 | 31 | 325 | 4.8 | 11.3 | 0.00 | 0.00 | 0.00 | 56 | 1012.6 |
| 20260905170146 | 31 | 332 | 0.0 | 11.3 | 0.00 | 0.00 | 0.00 | 56 | 1012.6 |
| 20260905170027 | 31 | 328 | 1.6 | 11.3 | 0.00 | 0.00 | 0.00 | 56 | 1012.6 |
| 20260905165945 | 31 | 332 | 9.7 | 11.3 | 0.00 | 0.00 | 0.00 | 55 | 1012.6 |
| 20260905165841 | 31 | 326 | 9.7 | 11.3 | 0.00 | 0.00 | 0.00 | 56 | 1012.6 |
| 20260905165800 | 31 | 302 | 4.8 | 11.3 | 0.00 | 0.00 | 0.00 | 57 | 1012.8 |
| 20260905165638 | 31 | 292 | 1.6 | 11.3 | 0.00 | 0.00 | 0.00 | 58 | 1012.8 |
| 20260905165536 | 31 | 280 | 4.8 | 11.3 | 0.00 | 0.00 | 0.00 | 58 | 1012.8 |
| 20260905165435 | 31 | 292 | 3.2 | 11.3 | 0.00 | 0.00 | 0.00 | 57 | 1012.8 |
| 20260905165334 | 31 | 292 | 4.8 | 11.3 | 0.00 | 0.00 | 0.00 | 58 | 1012.8 |
| 20260905165237 | 31 | 284 | 3.2 | 9.7 | 0.00 | 0.00 | 0.00 | 57 | 1012.8 |
| 20260905165136 | 31 | 328 | 3.2 | 11.3 | 0.00 | 0.00 | 0.00 | 58 | 1012.8 |
| 20260905165035 | 31 | 328 | 3.2 | 11.3 | 0.00 | 0.00 | 0.00 | 58 | 1012.8 |
| 20260905164933 | 31 | 329 | 1.6 | 11.3 | 0.00 | 0.00 | 0.00 | 57 | 1012.8 |
| 20260905164833 | 31 | 330 | 4.8 | 11.3 | 0.00 | 0.00 | 0.00 | 57 | 1012.8 |
| 20260905164743 | 31 | 292 | 1.6 | 11.3 | 0.00 | 0.00 | 0.00 | 57 | 1012.8 |
| 20260905164652 | 31 | 295 | 3.2 | 11.3 | 0.00 | 0.00 | 0.00 | 58 | 1012.8 |
| 20260905164537 | 31 | 295 | 3.2 | 11.3 | 0.00 | 0.00 | 0.00 | 57 | 1012.8 |
| 20260905164435 | 31 | 318 | 4.8 | 11.3 | 0.00 | 0.00 | 0.00 | 57 | 1012.8 |
| 20260905164334 | 31 | 328 | 6.4 | 11.3 | 0.00 | 0.00 | 0.00 | 60 | 1012.8 |
| 20260905164234 | 31 | 329 | 3.2 | 9.7 | 0.00 | 0.00 | 0.00 | 59 | 1013.1 |
| 20260905164132 | 31 | 313 | 1.6 | 9.7 | 0.00 | 0.00 | 0.00 | 59 | 1013.1 |
| 20260905164051 | 31 | 313 | 3.2 | 9.7 | 0.00 | 0.00 | 0.00 | 60 | 1013.1 |
| 20260905163927 | 31 | 312 | 1.6 | 9.7 | 0.00 | 0.00 | 0.00 | 59 | 1013.1 |
| 20260905163831 | 30 | 308 | 0.0 | 9.7 | 0.00 | 0.00 | 0.00 | 59 | 1013.1 |
| 20260905163729 | 30 | 311 | 0.0 | 11.3 | 0.00 | 0.00 | 0.00 | 60 | 1013.1 |
| 20260905163630 | 30 | 311 | 0.0 | 11.3 | 0.00 | 0.00 | 0.00 | 61 | 1013.1 |
| 20260905163528 | 30 | 311 | 3.2 | 11.3 | 0.00 | 0.00 | 0.00 | 61 | 1013.1 |
| 20260905163429 | 30 | 308 | 4.8 | 11.3 | 0.00 | 0.00 | 0.00 | 60 | 1013.1 |
| 20260905163325 | 30 | 309 | 8.0 | 11.3 | 0.00 | 0.00 | 0.00 | 61 | 1013.1 |
| 20260905163227 | 30 | 309 | 6.4 | 11.3 | 0.00 | 0.00 | 0.00 | 60 | 1013.1 |
| 20260905163158 | 30 | 320 | 4.8 | 11.3 | 0.00 | 0.00 | 0.00 | 60 | 1013.1 |
| 20260905163039 | 30 | 337 | 3.2 | 11.3 | 0.00 | 0.00 | 0.00 | 61 | 1013.1 |
| 20260905162939 | 30 | 292 | 4.8 | 11.3 | 0.00 | 0.00 | 0.00 | 61 | 1013.1 |
| 20260905162837 | 30 | 325 | 4.8 | 11.3 | 0.00 | 0.00 | 0.00 | 61 | 1013.1 |
| 20260905162735 | 30 | 320 | 3.2 | 9.7 | 0.00 | 0.00 | 0.00 | 61 | 1013.2 |
| 20260905162635 | 30 | 318 | 4.8 | 9.7 | 0.00 | 0.00 | 0.00 | 61 | 1013.2 |
| 20260905162533 | 30 | 319 | 1.6 | 9.7 | 0.00 | 0.00 | 0.00 | 61 | 1013.2 |
| 20260905162431 | 30 | 318 | 4.8 | 9.7 | 0.00 | 0.00 | 0.00 | 61 | 1013.2 |
| 20260905162334 | 30 | 319 | 6.4 | 9.7 | 0.00 | 0.00 | 0.00 | 61 | 1013.2 |
| 20260905162252 | 30 | 313 | 3.2 | 9.7 | 0.00 | 0.00 | 0.00 | 61 | 1013.2 |
| 20260905162155 | 30 | 335 | 3.2 | 9.7 | 0.00 | 0.00 | 0.00 | 60 | 1013.2 |
| 20260905162034 | 30 | 319 | 3.2 | 9.7 | 0.00 | 0.00 | 0.00 | 60 | 1013.2 |
| 20260905161936 | 30 | 346 | 6.4 | 9.7 | 0.00 | 0.00 | 0.00 | 62 | 1013.2 |
| 20260905161833 | 30 | 318 | 3.2 | 9.7 | 0.00 | 0.00 | 0.00 | 62 | 1013.2 |
| 20260905161752 | 30 | 313 | 1.6 | 9.7 | 0.00 | 0.00 | 0.00 | 62 | 1013.2 |
| 20260905161721 | 30 | 315 | 3.2 | 9.7 | 0.00 | 0.00 | 0.00 | 62 | 1013.2 |
| 20260905161542 | 30 | 312 | 1.6 | 9.7 | 0.00 | 0.00 | 0.00 | 62 | 1013.2 |
| 20260905161501 | 30 | 313 | 0.0 | 9.7 | 0.00 | 0.00 | 0.00 | 62 | 1013.2 |
| 20260905161338 | 30 | 311 | 1.6 | 9.7 | 0.00 | 0.00 | 0.00 | 62 | 1013.2 |
| 20260905161237 | 30 | 312 | 4.8 | 9.7 | 0.00 | 0.00 | 0.00 | 62 | 1013.4 |
| 20260905161135 | 30 | 313 | 3.2 | 9.7 | 0.00 | 0.00 | 0.00 | 61 | 1013.4 |
| 20260905161034 | 30 | 312 | 6.4 | 9.7 | 0.00 | 0.00 | 0.00 | 62 | 1013.4 |
| 20260905160931 | 30 | 313 | 4.8 | 9.7 | 0.00 | 0.00 | 0.00 | 63 | 1013.4 |
| 20260905160851 | 30 | 312 | 3.2 | 9.7 | 0.00 | 0.00 | 0.00 | 63 | 1013.4 |
| 20260905160732 | 30 | 311 | 6.4 | 9.7 | 0.00 | 0.00 | 0.00 | 62 | 1013.4 |
| 20260905160631 | 30 | 312 | 8.0 | 9.7 | 0.00 | 0.00 | 0.00 | 63 | 1013.4 |
| 20260905160531 | 30 | 312 | 6.4 | 9.7 | 0.00 | 0.00 | 0.00 | 62 | 1013.4 |
| 20260905160429 | 30 | 315 | 6.4 | 9.7 | 0.00 | 0.00 | 0.00 | 62 | 1013.4 |
| 20260905160348 | 30 | 316 | 3.2 | 4.8 | 0.00 | 0.00 | 0.00 | 62 | 1013.4 |
| 20260905160246 | 30 | 316 | 1.6 | 4.8 | 0.00 | 0.00 | 0.00 | 62 | 1013.4 |
| 20260905160216 | 30 | 318 | 1.6 | 4.8 | 0.00 | 0.00 | 0.00 | 62 | 1013.4 |
| 20260905160031 | 30 | 319 | 3.2 | 8.0 | 0.00 | 0.00 | 0.00 | 63 | 1013.4 |
| 20260905155934 | 30 | 318 | 0.0 | 8.0 | 0.00 | 0.00 | 0.00 | 63 | 1013.4 |
| 20260905155834 | 30 | 318 | 1.6 | 8.0 | 0.00 | 0.00 | 0.00 | 63 | 1013.4 |
| 20260905155752 | 30 | 316 | 3.2 | 8.0 | 0.00 | 0.00 | 0.00 | 63 | 1013.4 |
| 20260905155630 | 30 | 318 | 1.6 | 8.0 | 0.00 | 0.00 | 0.00 | 64 | 1013.4 |
| 20260905155528 | 30 | 318 | 3.2 | 8.0 | 0.00 | 0.00 | 0.00 | 63 | 1013.4 |
| 20260905155427 | 30 | 318 | 3.2 | 8.0 | 0.00 | 0.00 | 0.00 | 64 | 1013.4 |
| 20260905155328 | 29 | 315 | 3.2 | 8.0 | 0.00 | 0.00 | 0.00 | 64 | 1013.4 |
| 20260905155230 | 29 | 318 | 6.4 | 8.0 | 0.00 | 0.00 | 0.00 | 65 | 1013.4 |
| 20260905155127 | 29 | 318 | 3.2 | 8.0 | 0.00 | 0.00 | 0.00 | 66 | 1013.4 |
| 20260905155027 | 29 | 318 | 1.6 | 8.0 | 0.00 | 0.00 | 0.00 | 65 | 1013.4 |
| 20260905154926 | 29 | 316 | 3.2 | 8.0 | 0.00 | 0.00 | 0.00 | 66 | 1013.4 |
| 20260905154826 | 29 | 316 | 1.6 | 9.7 | 0.00 | 0.00 | 0.00 | 65 | 1013.4 |
| 20260905154726 | 29 | 318 | 0.0 | 9.7 | 0.00 | 0.00 | 0.00 | 65 | 1013.4 |
| 20260905154657 | 29 | 318 | 0.0 | 9.7 | 0.00 | 0.00 | 0.00 | 65 | 1013.4 |
| 20260905154537 | 29 | 319 | 0.0 | 11.3 | 0.00 | 0.00 | 0.00 | 65 | 1013.4 |
| 20260905154455 | 29 | 318 | 1.6 | 11.3 | 0.00 | 0.00 | 0.00 | 66 | 1013.4 |
| 20260905154333 | 29 | 318 | 3.2 | 11.3 | 0.00 | 0.00 | 0.00 | 67 | 1013.4 |
| 20260905154233 | 29 | 318 | 6.4 | 11.3 | 0.00 | 0.00 | 0.00 | 68 | 1013.4 |
| 20260905154131 | 29 | 316 | 4.8 | 11.3 | 0.00 | 0.00 | 0.00 | 68 | 1013.4 |
| 20260905154029 | 29 | 318 | 6.4 | 11.3 | 0.00 | 0.00 | 0.00 | 66 | 1013.4 |
| 20260905153928 | 29 | 318 | 6.4 | 11.3 | 0.00 | 0.00 | 0.00 | 66 | 1013.4 |
| 20260905153827 | 29 | 319 | 8.0 | 11.3 | 0.00 | 0.00 | 0.00 | 66 | 1013.4 |
| 20260905153728 | 29 | 320 | 8.0 | 11.3 | 0.00 | 0.00 | 0.00 | 68 | 1013.4 |
| 20260905153627 | 29 | 320 | 4.8 | 9.7 | 0.00 | 0.00 | 0.00 | 67 | 1013.4 |
| 20260905153527 | 29 | 320 | 4.8 | 9.7 | 0.00 | 0.00 | 0.00 | 67 | 1013.4 |
| 20260905153426 | 29 | 322 | 4.8 | 9.7 | 0.00 | 0.00 | 0.00 | 67 | 1013.4 |
| 20260905153344 | 29 | 319 | 1.6 | 8.0 | 0.00 | 0.00 | 0.00 | 68 | 1013.4 |
| 20260905153242 | 29 | 320 | 4.8 | 8.0 | 0.00 | 0.00 | 0.00 | 68 | 1013.4 |
| 20260905153213 | 29 | 319 | 4.8 | 8.0 | 0.00 | 0.00 | 0.00 | 69 | 1013.4 |
| 20260905153049 | 29 | 333 | 3.2 | 8.0 | 0.00 | 0.00 | 0.00 | 68 | 1013.4 |
| 20260905152929 | 29 | 333 | 1.6 | 8.0 | 0.00 | 0.00 | 0.00 | 68 | 1013.4 |
| 20260905152827 | 29 | 335 | 1.6 | 8.0 | 0.00 | 0.00 | 0.00 | 68 | 1013.4 |
| 20260905152747 | 29 | 335 | 1.6 | 8.0 | 0.00 | 0.00 | 0.00 | 69 | 1013.4 |
| 20260905152649 | 28 | 333 | 3.2 | 8.0 | 0.00 | 0.00 | 0.00 | 69 | 1013.4 |
| 20260905152546 | 28 | 333 | 1.6 | 8.0 | 0.00 | 0.00 | 0.00 | 69 | 1013.4 |
| 20260905152446 | 28 | 333 | 3.2 | 8.0 | 0.00 | 0.00 | 0.00 | 69 | 1013.4 |
| 20260905152344 | 28 | 333 | 4.8 | 8.0 | 0.00 | 0.00 | 0.00 | 68 | 1013.4 |
| 20260905152301 | 28 | 335 | 4.8 | 8.0 | 0.00 | 0.00 | 0.00 | 68 | 1013.4 |
| 20260905152139 | 28 | 336 | 4.8 | 8.0 | 0.00 | 0.00 | 0.00 | 69 | 1013.4 |
| 20260905152057 | 28 | 336 | 1.6 | 6.4 | 0.00 | 0.00 | 0.00 | 68 | 1013.4 |
| 20260905151954 | 28 | 337 | 1.6 | 6.4 | 0.00 | 0.00 | 0.00 | 68 | 1013.4 |
| 20260905151836 | 28 | 340 | 0.0 | 6.4 | 0.00 | 0.00 | 0.00 | 68 | 1013.4 |
| 20260905151735 | 28 | 339 | 0.0 | 6.4 | 0.00 | 0.00 | 0.00 | 69 | 1013.4 |
| 20260905151704 | 28 | 339 | 0.0 | 6.4 | 0.00 | 0.00 | 0.00 | 69 | 1013.4 |
| 20260905151541 | 28 | 339 | 0.0 | 6.4 | 0.00 | 0.00 | 0.00 | 69 | 1013.4 |
| 20260905151439 | 28 | 337 | 0.0 | 6.4 | 0.00 | 0.00 | 0.00 | 69 | 1013.4 |
| 20260905151337 | 28 | 340 | 1.6 | 6.4 | 0.00 | 0.00 | 0.00 | 69 | 1013.4 |
| 20260905151237 | 28 | 339 | 0.0 | 6.4 | 0.00 | 0.00 | 0.00 | 70 | 1012.4 |
| 20260905151140 | 28 | 340 | 0.0 | 3.2 | 0.00 | 0.00 | 0.00 | 70 | 1012.4 |
| 20260905151039 | 28 | 340 | 0.0 | 3.2 | 0.00 | 0.00 | 0.00 | 70 | 1012.4 |
| 20260905150937 | 28 | 340 | 0.0 | 3.2 | 0.00 | 0.00 | 0.00 | 70 | 1012.4 |
| 20260905150836 | 28 | 337 | 0.0 | 3.2 | 0.00 | 0.00 | 0.00 | 71 | 1012.4 |
| 20260905150734 | 28 | 340 | 0.0 | 3.2 | 0.00 | 0.00 | 0.00 | 71 | 1012.4 |
| 20260905150633 | 28 | 340 | 0.0 | 3.2 | 0.00 | 0.00 | 0.00 | 71 | 1012.4 |
| 20260905150535 | 28 | 339 | 0.0 | 3.2 | 0.00 | 0.00 | 0.00 | 71 | 1012.4 |
| 20260905150433 | 28 | 342 | 0.0 | 3.2 | 0.00 | 0.00 | 0.00 | 71 | 1012.4 |
| 20260905150332 | 28 | 342 | 1.6 | 3.2 | 0.00 | 0.00 | 0.00 | 71 | 1012.4 |
| 20260905150301 | 28 | 340 | 3.2 | 3.2 | 0.00 | 0.00 | 0.00 | 71 | 1012.4 |
| 20260905150151 | 28 | 337 | 3.2 | 3.2 | 0.00 | 0.00 | 0.00 | 71 | 1012.4 |
| 20260905150030 | 28 | 339 | 0.0 | 3.2 | 0.00 | 0.00 | 0.00 | 71 | 1012.4 |
| 20260905145927 | 28 | 336 | 0.0 | 1.6 | 0.00 | 0.00 | 0.00 | 71 | 1012.4 |
| 20260905145846 | 28 | 340 | 0.0 | 1.6 | 0.00 | 0.00 | 0.00 | 71 | 1012.4 |
| 20260905145804 | 28 | 335 | 0.0 | 1.6 | 0.00 | 0.00 | 0.00 | 71 | 1012.5 |
| 20260905145707 | 28 | 340 | 0.0 | 1.6 | 0.00 | 0.00 | 0.00 | 71 | 1012.5 |
| 20260905145605 | 28 | 340 | 0.0 | 3.2 | 0.00 | 0.00 | 0.00 | 71 | 1012.5 |
| 20260905145442 | 28 | 340 | 0.0 | 3.2 | 0.00 | 0.00 | 0.00 | 71 | 1012.5 |
| 20260905145341 | 28 | 340 | 0.0 | 3.2 | 0.00 | 0.00 | 0.00 | 71 | 1012.5 |
| 20260905145258 | 27 | 340 | 0.0 | 3.2 | 0.00 | 0.00 | 0.00 | 71 | 1012.5 |
| 20260905145137 | 27 | 340 | 0.0 | 3.2 | 0.00 | 0.00 | 0.00 | 71 | 1012.5 |
| 20260905145034 | 27 | 340 | 0.0 | 3.2 | 0.00 | 0.00 | 0.00 | 71 | 1012.5 |
| 20260905144933 | 27 | 337 | 0.0 | 3.2 | 0.00 | 0.00 | 0.00 | 72 | 1012.5 |
| 20260905144856 | 27 | 340 | 0.0 | 4.8 | 0.00 | 0.00 | 0.00 | 72 | 1012.5 |
| 20260905144703 | 27 | 340 | 0.0 | 4.8 | 0.00 | 0.00 | 0.00 | 71 | 1012.5 |
| 20260905144541 | 27 | 340 | 0.0 | 4.8 | 0.00 | 0.00 | 0.00 | 71 | 1012.5 |
| 20260905144440 | 27 | 340 | 0.0 | 4.8 | 0.00 | 0.00 | 0.00 | 70 | 1012.5 |
| 20260905144339 | 27 | 340 | 0.0 | 4.8 | 0.00 | 0.00 | 0.00 | 70 | 1012.5 |
| 20260905144237 | 27 | 339 | 0.0 | 4.8 | 0.00 | 0.00 | 0.00 | 70 | 1012.8 |
| 20260905144140 | 27 | 340 | 1.6 | 6.4 | 0.00 | 0.00 | 0.00 | 70 | 1012.8 |
| 20260905144059 | 27 | 336 | 3.2 | 6.4 | 0.00 | 0.00 | 0.00 | 70 | 1012.8 |
| 20260905143936 | 27 | 340 | 1.6 | 6.4 | 0.00 | 0.00 | 0.00 | 69 | 1012.8 |
| 20260905143834 | 27 | 339 | 1.6 | 6.4 | 0.00 | 0.00 | 0.00 | 69 | 1012.8 |
| 20260905143733 | 27 | 340 | 3.2 | 8.0 | 0.00 | 0.00 | 0.00 | 70 | 1012.8 |
| 20260905143632 | 27 | 336 | 3.2 | 8.0 | 0.00 | 0.00 | 0.00 | 71 | 1012.8 |
| 20260905143531 | 27 | 340 | 1.6 | 8.0 | 0.00 | 0.00 | 0.00 | 71 | 1012.8 |
| 20260905143450 | 27 | 342 | 3.2 | 8.0 | 0.00 | 0.00 | 0.00 | 72 | 1012.8 |
| 20260905143335 | 27 | 340 | 3.2 | 8.0 | 0.00 | 0.00 | 0.00 | 73 | 1012.8 |
| 20260905143233 | 27 | 340 | 1.6 | 8.0 | 0.00 | 0.00 | 0.00 | 73 | 1012.8 |
| 20260905143205 | 27 | 342 | 1.6 | 8.0 | 0.00 | 0.00 | 0.00 | 72 | 1012.8 |
| 20260905143041 | 27 | 340 | 1.6 | 8.0 | 0.00 | 0.00 | 0.00 | 72 | 1012.8 |
| 20260905142940 | 27 | 339 | 4.8 | 8.0 | 0.00 | 0.00 | 0.00 | 72 | 1012.8 |
| 20260905142838 | 27 | 336 | 3.2 | 8.0 | 0.00 | 0.00 | 0.00 | 71 | 1012.8 |
| 20260905142737 | 27 | 337 | 3.2 | 8.0 | 0.00 | 0.00 | 0.00 | 71 | 1012.9 |
| 20260905142639 | 27 | 337 | 1.6 | 8.0 | 0.00 | 0.00 | 0.00 | 70 | 1012.9 |
| 20260905142537 | 27 | 337 | 3.2 | 8.0 | 0.00 | 0.00 | 0.00 | 71 | 1012.9 |
| 20260905142437 | 27 | 336 | 1.6 | 8.0 | 0.00 | 0.00 | 0.00 | 72 | 1012.9 |
| 20260905142334 | 27 | 339 | 1.6 | 8.0 | 0.00 | 0.00 | 0.00 | 71 | 1012.9 |
| 20260905142234 | 27 | 339 | 3.2 | 8.0 | 0.00 | 0.00 | 0.00 | 71 | 1012.9 |
| 20260905142133 | 27 | 339 | 3.2 | 8.0 | 0.00 | 0.00 | 0.00 | 72 | 1012.9 |
| 20260905142032 | 27 | 342 | 0.0 | 4.8 | 0.00 | 0.00 | 0.00 | 73 | 1012.9 |
| 20260905141954 | 27 | 340 | 3.2 | 4.8 | 0.00 | 0.00 | 0.00 | 74 | 1012.9 |
| 20260905141832 | 27 | 343 | 3.2 | 4.8 | 0.00 | 0.00 | 0.00 | 74 | 1012.9 |
| 20260905141732 | 27 | 343 | 1.6 | 4.8 | 0.00 | 0.00 | 0.00 | 74 | 1012.9 |
| 20260905141700 | 27 | 344 | 1.6 | 4.8 | 0.00 | 0.00 | 0.00 | 74 | 1012.9 |
| 20260905141538 | 27 | 346 | 1.6 | 4.8 | 0.00 | 0.00 | 0.00 | 74 | 1012.9 |
| 20260905141437 | 27 | 344 | 0.0 | 4.8 | 0.00 | 0.00 | 0.00 | 73 | 1012.9 |